GFSSGP_sfc_thetae_114.txt.gz
Theta_e
321 319 321 315 303 302 299 299 303 302 302 307 307 306 305 308 306 306 325 346 347 349 356 354 349 351 352 352 353 354 356 356 355 354 354 354 354 354 354 354 354 355 356 355 353 355 354 353 353
317 316 317 311 300 298 300 303 301 303 305 306 307 307 307 307 314 319 329 343 347 351 354 354 348 350 351 351 352 354 356 356 354 354 354 354 354 354 354 354 354 355 356 355 352 353 355 352 350
316 317 310 306 302 298 300 303 303 303 305 305 306 310 309 310 320 324 334 345 348 350 353 354 347 348 350 350 351 353 354 354 354 353 354 354 354 354 354 352 353 354 356 355 353 353 352 349 348
313 312 309 301 300 302 303 304 303 303 306 307 308 306 312 322 321 329 339 348 348 350 353 349 345 347 349 350 350 352 351 351 351 352 353 354 354 354 353 351 353 354 355 355 354 352 349 347 346
314 311 302 300 301 304 306 305 305 303 305 307 308 306 309 318 326 331 338 348 346 350 353 355 343 346 349 350 350 350 349 349 350 352 352 353 354 353 351 350 352 353 354 354 353 350 347 345 345
306 308 299 298 301 304 306 307 306 305 307 307 307 308 310 318 321 331 338 347 350 351 354 355 347 347 347 348 348 346 347 348 349 350 351 353 352 351 350 350 350 351 351 350 349 347 345 345 344
304 303 300 300 300 301 305 307 305 306 306 307 310 306 312 316 319 333 339 347 351 353 354 354 351 350 344 344 344 343 345 346 347 348 348 349 348 347 348 349 349 349 347 347 347 345 344 344 343
305 303 299 299 299 299 306 305 307 306 305 312 312 306 308 316 318 325 330 346 349 351 354 354 351 352 353 353 342 342 342 343 344 346 346 345 345 346 347 347 347 347 346 346 345 343 343 343 341
306 298 296 298 298 300 304 303 308 310 308 309 311 311 314 316 316 317 320 332 346 346 349 350 348 349 352 354 350 343 343 343 343 345 344 344 353 353 352 347 344 345 344 344 343 342 341 340 339
300 297 298 302 302 301 303 304 305 305 306 306 308 312 313 313 313 314 315 318 331 343 347 346 348 346 348 350 353 352 351 349 350 350 352 352 352 351 350 346 341 340 340 341 340 340 338 339 345
299 296 300 301 303 304 303 303 306 303 301 305 304 306 309 311 312 312 313 315 321 337 345 346 345 347 348 350 348 349 349 350 350 352 352 351 350 351 351 350 350 351 343 348 343 344 345 344 343
296 299 299 300 302 302 300 302 300 302 302 306 307 308 308 308 310 310 311 312 315 328 341 345 348 347 349 348 344 346 350 348 347 349 352 350 349 350 349 348 349 348 350 348 346 344 344 344 343
296 297 299 301 300 300 301 299 299 300 305 307 305 306 306 306 307 309 310 312 313 317 329 343 346 346 347 347 345 344 347 347 349 348 347 350 349 347 347 348 347 348 347 348 345 344 343 342 342
297 298 298 298 298 299 297 298 300 301 303 303 302 303 304 305 307 308 310 311 312 313 316 324 341 346 346 345 346 346 347 347 346 345 346 347 348 347 344 346 347 347 346 347 346 345 344 342 342
296 293 295 296 297 296 298 295 296 301 302 301 302 303 303 304 306 306 309 310 312 313 315 318 326 340 346 345 345 345 345 345 344 342 347 345 345 348 344 343 345 345 348 346 346 344 343 341 341
294 294 289 295 295 296 296 290 297 301 301 300 301 302 302 304 305 307 308 309 311 312 314 316 317 326 341 345 344 343 344 344 343 343 347 349 344 346 345 343 343 346 347 345 344 342 340 340 339
293 288 289 290 295 294 293 291 296 300 299 298 300 301 302 303 304 306 307 309 309 311 312 314 317 319 332 340 344 345 345 344 343 344 345 347 348 348 347 344 342 345 342 343 342 341 341 338 337
288 287 289 288 292 294 292 292 297 298 298 298 299 300 301 301 303 305 308 310 313 316 318 317 316 317 320 333 340 340 343 344 344 343 344 346 347 348 347 344 344 342 338 339 341 340 340 339 337
291 289 288 291 294 292 291 292 294 296 297 296 297 299 299 303 308 311 312 314 314 316 316 318 319 322 316 317 328 331 336 339 342 343 344 345 347 347 345 342 343 339 337 337 339 338 337 338 339
290 288 288 291 292 291 290 290 293 295 295 296 296 300 303 304 304 305 307 309 310 311 313 314 315 317 320 319 317 330 334 336 338 343 345 345 344 345 345 343 340 337 336 335 336 335 332 333 335
289 288 288 287 289 291 290 288 292 293 295 297 301 301 301 300 300 301 302 304 305 306 308 309 311 313 315 318 322 319 331 334 335 339 342 344 343 343 345 342 339 337 337 333 333 335 332 328 330
285 290 287 286 285 283 290 280 289 293 292 295 297 299 298 298 298 298 298 299 300 301 304 306 308 309 312 316 318 320 320 326 333 335 338 341 344 342 342 341 339 337 336 333 333 335 335 332 326
286 289 288 287 285 285 286 283 288 292 289 292 294 295 297 297 297 296 296 296 299 300 300 301 304 305 309 313 316 319 319 330 332 336 337 339 339 338 338 339 339 336 337 334 333 333 334 333 330
290 288 288 288 285 279 285 284 285 289 288 289 291 291 294 294 295 295 296 296 297 298 298 298 299 301 303 306 312 317 322 325 330 332 335 337 337 335 335 336 336 336 335 334 333 333 334 333 332
288 285 280 278 279 278 284 282 285 290 289 289 288 290 292 292 292 292 292 292 293 293 293 294 294 295 297 301 305 311 320 325 333 332 335 335 333 332 333 334 333 334 335 334 332 332 333 332 330
286 285 279 273 276 279 285 279 287 291 292 292 291 291 290 290 289 288 289 290 290 291 291 292 291 291 294 298 302 307 317 327 332 334 334 336 334 333 334 334 334 334 335 334 334 332 331 332 332
284 281 286 280 281 278 281 285 289 290 289 289 288 288 287 287 287 287 287 288 289 287 288 288 288 290 292 296 301 305 316 329 333 335 338 337 336 333 334 334 332 332 333 333 332 330 330 331 331
285 288 280 281 273 273 281 282 285 282 283 285 284 284 285 285 285 285 285 285 287 286 286 288 287 288 291 295 300 304 313 322 335 333 333 334 338 337 336 334 334 331 331 332 331 330 330 329 330
284 282 283 284 282 277 277 281 283 281 281 281 284 285 285 283 283 284 284 284 286 285 284 285 285 287 290 295 300 303 310 330 334 332 333 336 337 336 334 335 332 330 329 330 330 330 329 327 329
287 285 285 279 279 282 281 281 284 282 282 282 283 284 284 284 284 283 283 283 283 283 283 283 284 286 289 293 298 299 302 309 329 330 332 334 332 333 332 331 328 327 327 329 328 326 326 327 326

GFSSGP_sfc_thetae_117.txt.gz
Theta_e
325 320 320 316 305 305 302 305 308 305 305 310 310 308 307 309 308 307 327 340 344 346 359 354 349 351 353 354 354 355 355 356 355 354 354 354 354 355 356 355 355 357 358 355 355 354 354 354 355
323 318 318 314 302 301 303 308 304 307 308 309 308 308 308 308 316 321 327 338 346 348 357 355 349 351 352 353 354 354 356 356 355 354 355 354 354 355 355 355 354 355 357 354 354 354 354 353 351
320 318 312 308 305 301 303 308 307 308 308 307 307 311 310 312 320 324 332 345 349 349 355 356 348 349 351 352 353 354 355 354 353 354 354 355 355 355 355 353 354 355 356 354 353 355 353 350 348
316 314 313 304 302 307 307 309 307 307 309 309 309 307 314 322 322 329 334 346 348 349 353 348 346 348 350 351 353 354 353 352 352 352 354 354 355 355 354 352 353 355 356 355 355 353 351 347 347
317 313 305 303 304 308 311 310 309 307 308 309 310 308 310 320 323 331 334 345 349 349 354 355 345 347 349 351 352 352 351 350 351 352 352 353 354 354 352 351 352 354 355 355 354 351 348 346 346
309 310 302 301 304 309 310 312 310 309 310 310 309 310 312 321 321 327 336 343 352 350 354 358 347 347 347 349 349 348 348 349 350 351 351 353 352 351 350 350 351 352 352 351 350 347 346 345 345
306 306 302 303 304 306 307 311 308 308 309 309 313 307 314 318 322 322 327 341 351 354 354 357 353 350 345 345 344 344 346 348 348 349 349 350 349 348 349 350 350 351 350 349 347 346 345 345 344
308 306 302 303 302 303 309 309 310 308 308 314 313 307 310 318 321 321 324 330 346 352 355 357 354 353 351 350 343 343 344 345 346 347 347 346 347 347 347 347 348 349 347 347 346 344 343 343 342
310 300 299 301 302 304 309 305 310 312 310 311 312 313 316 318 318 318 320 324 338 348 350 356 353 352 353 351 349 343 344 344 344 347 346 344 353 353 352 347 345 345 344 344 344 343 342 341 340
304 300 301 306 305 303 305 305 307 307 307 308 310 314 315 315 315 315 316 318 321 335 347 350 351 351 355 350 353 350 349 348 349 350 352 353 351 352 348 346 343 342 341 342 342 341 340 340 344
303 299 304 305 305 306 303 303 306 304 302 307 306 309 311 312 313 314 315 316 318 327 345 348 348 350 350 352 351 349 349 348 349 350 351 350 350 352 349 350 349 351 343 348 344 343 344 343 342
299 303 303 303 304 303 301 304 302 303 304 308 308 309 310 310 310 311 313 315 316 320 336 348 349 349 350 353 349 349 347 350 349 350 356 352 350 352 350 347 348 349 349 348 347 344 344 345 345
298 300 302 302 302 302 302 299 300 301 305 307 308 307 308 308 309 312 313 314 316 317 323 338 348 349 350 350 349 349 350 347 349 349 354 351 348 351 350 347 348 347 347 347 347 344 344 342 342
302 300 301 302 301 301 298 298 299 301 305 305 305 306 306 306 308 309 311 313 315 316 317 322 328 347 348 349 351 350 351 349 349 348 350 355 351 350 348 348 344 347 346 345 347 345 342 342 342
300 295 298 299 300 299 300 295 296 303 305 304 304 305 305 306 307 308 309 310 313 314 317 319 322 328 343 346 347 348 347 348 347 347 353 348 353 353 350 347 346 343 346 348 348 347 345 342 343
296 297 293 300 298 299 297 292 299 303 302 302 303 304 304 305 306 308 310 310 311 312 314 317 317 321 327 338 343 345 346 348 346 347 347 349 347 351 350 345 347 347 347 347 345 344 343 340 338
296 291 294 296 299 297 297 294 299 301 301 300 302 303 304 304 306 308 309 310 311 313 316 317 320 320 322 328 338 344 347 347 346 346 346 349 349 350 349 345 345 350 347 347 344 342 342 341 340
293 293 295 293 297 297 295 295 299 301 301 300 301 302 303 303 305 312 314 316 316 317 318 319 320 323 324 321 327 335 340 344 346 346 344 347 350 350 348 345 346 346 346 345 345 343 342 340 339
295 293 291 294 297 295 294 294 297 299 300 299 300 301 301 304 310 310 311 312 313 314 314 315 317 320 321 322 317 323 335 339 343 344 347 345 348 351 349 347 347 346 342 342 344 343 341 338 341
293 291 291 294 296 295 293 293 296 298 298 300 300 300 304 305 305 306 307 308 309 310 311 312 313 315 317 318 321 320 324 333 340 344 345 348 348 349 349 348 347 347 342 338 339 339 339 341 342
292 290 290 290 293 294 292 290 294 299 298 299 302 303 302 302 302 303 304 304 306 306 308 308 309 311 313 316 317 319 324 323 334 339 340 344 347 349 349 349 348 346 344 340 337 337 335 332 339
288 293 292 290 288 285 293 284 292 296 297 298 300 301 301 301 301 301 301 302 303 303 306 307 307 307 309 313 313 315 316 318 326 336 339 340 345 347 349 349 348 347 344 340 336 336 335 333 329
290 294 290 290 288 287 287 284 290 295 293 296 298 298 299 300 299 298 298 299 300 301 302 303 303 304 307 309 310 311 315 319 323 325 338 339 343 344 347 348 347 345 343 341 339 335 334 334 331
293 290 290 289 286 280 286 286 287 292 292 293 294 296 296 297 297 296 297 296 296 298 299 299 300 301 303 304 306 306 310 315 318 324 329 334 338 341 345 344 344 342 340 340 340 337 334 334 332
291 287 281 280 280 280 289 287 288 293 293 292 292 293 295 295 294 293 292 292 292 293 294 294 295 296 298 300 302 302 305 310 315 319 325 333 335 337 340 341 338 340 340 338 339 334 333 333 331
289 288 282 275 277 281 288 283 289 294 295 294 293 293 292 291 291 289 289 289 289 289 290 290 290 292 294 295 297 299 301 305 312 319 325 326 335 338 341 340 337 336 340 337 336 334 333 333 332
287 284 289 282 283 279 283 287 292 293 292 291 290 290 288 288 288 287 288 287 287 287 287 288 287 289 291 291 293 294 299 303 308 318 328 330 335 339 340 339 334 334 334 336 334 332 331 333 333
288 290 281 282 274 274 281 284 283 282 284 287 286 287 287 287 286 286 285 285 286 286 287 288 286 287 288 290 292 295 298 303 308 320 328 333 336 339 337 337 333 332 333 333 333 332 331 330 331
286 284 284 285 283 278 278 281 284 281 283 283 286 287 287 286 285 285 285 285 284 286 285 285 285 285 287 289 292 294 300 303 309 322 331 335 336 335 335 336 332 331 331 331 331 330 329 329 330
289 287 286 280 279 283 282 282 285 284 285 285 284 286 287 286 285 286 285 284 284 284 284 283 284 284 286 287 291 296 297 301 304 316 330 334 333 334 335 335 334 333 330 329 329 328 328 328 326

GFSSGP_sfc_thetae_120.txt.gz
Theta_e
323 319 317 314 303 303 299 302 309 305 305 309 309 307 305 308 306 306 330 338 346 350 352 350 350 352 354 355 355 354 354 355 354 354 354 354 354 355 355 355 355 357 358 358 356 355 354 356 354
320 320 316 310 301 297 300 308 305 305 307 309 308 308 307 307 318 321 325 338 348 350 353 351 349 351 353 353 354 354 355 355 354 354 354 354 355 355 355 354 354 356 357 355 355 354 355 355 351
321 320 309 306 302 298 300 307 306 307 309 308 307 311 310 312 320 323 330 340 348 350 356 353 348 349 352 352 353 354 354 353 353 353 354 354 355 355 355 353 353 355 356 355 355 356 354 351 348
315 313 310 302 300 305 306 309 308 308 309 309 309 306 313 321 321 326 332 341 348 350 354 345 346 348 351 352 353 353 353 351 351 352 353 354 355 355 354 352 353 356 356 355 355 355 350 347 347
315 311 302 301 302 306 309 311 311 307 309 310 310 307 311 319 323 329 334 341 349 352 353 349 344 347 350 352 353 353 351 350 351 352 353 353 354 354 353 351 352 354 355 355 354 351 348 346 346
307 309 299 298 302 307 310 312 310 309 310 310 309 308 311 321 320 323 330 340 352 354 357 350 347 347 348 350 350 349 349 349 350 350 351 352 352 352 351 350 351 352 352 352 350 348 346 345 345
304 303 299 301 302 304 308 312 308 308 308 309 312 307 315 317 321 323 326 333 349 357 358 355 350 348 346 345 345 345 347 348 348 349 349 350 349 348 349 349 350 350 350 350 348 346 345 345 344
307 304 299 301 300 302 309 310 310 308 307 314 313 306 309 317 320 322 327 335 350 354 358 356 353 349 348 348 344 344 345 346 347 348 347 346 347 347 348 348 348 347 348 348 346 344 344 344 342
311 300 296 300 301 303 308 306 309 311 308 310 312 312 315 318 318 318 321 326 337 349 353 358 353 351 349 347 346 344 346 346 345 347 346 343 350 348 348 347 345 347 343 345 344 343 342 341 341
303 299 300 305 305 303 305 305 305 304 305 306 308 314 316 315 314 314 313 316 322 334 349 353 352 351 352 347 347 346 346 347 349 350 349 350 350 350 348 345 342 343 341 342 342 341 340 340 341
303 298 303 304 305 304 303 303 306 303 301 305 305 307 310 312 312 313 313 314 317 323 344 350 350 348 352 349 349 345 345 344 346 348 349 350 349 349 345 345 344 345 341 343 341 340 341 340 340
298 302 303 303 303 302 301 303 301 302 303 306 307 309 310 309 310 310 312 312 315 318 324 348 349 347 347 351 350 347 345 345 344 345 348 347 347 346 344 345 345 345 344 344 343 341 340 339 339
299 300 302 303 302 301 302 300 299 299 302 305 306 307 310 308 309 310 312 312 315 319 324 339 348 347 346 347 346 347 345 345 346 346 347 347 345 345 346 344 345 344 345 343 342 341 339 338 339
300 300 300 301 301 300 299 299 299 300 303 302 304 305 306 307 308 309 310 310 315 316 320 322 327 346 346 345 343 346 346 347 347 346 347 348 346 345 344 344 344 343 343 344 342 341 339 338 339
300 296 298 299 299 299 301 296 296 302 303 302 303 304 305 306 307 308 310 311 312 313 316 324 323 326 336 343 343 345 345 345 345 344 348 347 347 346 345 344 342 343 343 343 341 342 340 339 339
295 296 291 299 302 300 298 291 299 303 302 301 302 304 304 305 306 307 311 312 314 315 317 319 322 322 324 327 341 341 343 343 343 345 345 346 347 348 344 342 343 344 342 342 341 340 339 337 337
296 290 293 296 301 299 297 293 299 302 301 300 301 301 302 304 306 311 312 312 313 314 315 316 319 320 323 324 324 328 341 341 343 344 344 346 345 345 346 343 342 343 343 341 341 340 339 337 336
291 292 294 294 298 298 296 294 298 301 301 301 301 302 302 303 307 310 309 310 311 312 313 314 315 317 319 320 323 321 322 340 342 342 341 344 345 343 342 344 341 341 341 340 340 339 338 338 336
295 293 292 295 299 295 295 295 296 299 300 299 300 301 302 303 307 308 308 308 308 308 309 310 311 313 314 314 316 318 318 324 338 341 342 342 342 343 342 342 342 340 338 339 340 338 336 336 336
294 292 291 294 296 295 294 293 296 298 298 299 299 301 303 303 304 304 305 306 306 306 306 306 308 309 310 311 313 314 315 318 321 336 341 342 342 343 343 342 340 340 337 337 340 339 335 335 336
292 291 291 290 293 294 292 290 293 297 300 301 302 303 302 301 300 300 301 302 302 302 302 303 305 306 307 308 309 312 314 316 317 320 328 340 341 341 344 342 340 340 339 337 338 337 336 332 334
288 294 292 291 288 283 292 282 289 294 295 298 300 300 299 299 299 299 298 298 298 299 300 301 301 302 303 306 306 307 308 309 314 317 322 335 340 341 342 343 342 341 341 338 337 337 335 334 331
290 294 292 290 287 286 286 283 288 293 292 294 296 297 297 297 297 296 295 295 296 296 296 297 298 297 299 301 303 303 304 307 312 315 318 322 329 337 340 339 341 341 340 340 337 335 334 335 332
294 291 290 289 287 280 285 285 285 290 292 292 293 294 294 294 294 294 294 293 292 293 292 293 293 294 295 296 298 299 300 301 304 308 312 316 323 331 336 337 338 340 339 336 337 334 334 333 332
291 287 280 279 280 279 289 286 287 291 292 292 291 292 292 292 291 290 289 289 289 289 289 290 290 289 291 292 294 296 297 298 300 302 307 312 316 323 330 334 336 339 339 337 337 334 333 333 331
288 287 281 274 276 280 287 281 285 293 293 292 292 291 291 289 289 288 287 287 287 287 287 287 287 287 288 290 291 293 294 296 298 300 304 309 315 320 327 331 333 337 337 338 337 336 334 333 331
287 283 289 282 283 279 281 285 291 291 289 289 289 289 288 287 287 286 286 286 286 285 286 286 286 286 287 288 289 291 293 294 296 299 303 306 312 319 323 330 331 334 336 337 336 334 333 332 331
288 290 281 283 274 273 280 282 280 282 283 286 286 286 287 287 286 286 286 286 286 286 286 286 286 285 286 287 289 290 293 295 297 299 302 305 309 317 324 327 329 329 332 333 332 332 331 330 329
286 285 284 284 281 275 275 280 284 282 283 284 285 286 286 285 285 285 285 286 286 286 286 286 285 285 285 286 289 291 295 297 300 302 305 306 310 315 323 323 323 319 328 329 330 331 330 329 329
288 285 285 279 277 281 280 280 285 284 285 285 284 285 285 285 285 285 284 284 284 285 285 285 285 284 285 286 289 291 292 294 295 297 301 308 313 318 324 326 326 322 328 329 330 329 328 328 327

GFSSGP_sfc_thetae_123.txt.gz
Theta_e
319 313 309 305 294 291 288 293 296 297 298 299 302 301 300 302 306 305 325 335 343 347 349 350 349 352 353 354 353 352 353 354 354 354 353 353 353 354 354 354 355 357 358 356 355 354 352 354 352
317 318 308 300 291 286 290 298 295 298 302 304 304 304 303 308 316 319 324 334 344 348 348 349 349 351 353 353 353 353 354 355 354 354 353 353 354 354 353 353 353 356 357 356 355 353 354 354 350
317 317 299 295 291 288 290 297 297 301 304 304 303 305 306 311 320 321 330 342 346 348 348 349 348 349 351 352 352 352 353 353 352 353 354 354 354 354 354 352 352 355 356 355 355 355 354 350 347
308 304 300 292 291 296 298 302 301 301 304 306 305 302 312 318 320 324 334 343 346 348 349 345 345 347 351 351 352 352 351 350 350 351 353 354 355 355 353 351 352 355 355 355 356 355 350 347 346
306 300 292 291 293 298 302 304 304 304 306 307 305 302 309 315 320 326 334 344 346 347 346 346 344 347 350 352 352 351 350 349 350 351 351 353 354 353 351 350 351 353 353 354 353 350 347 345 345
298 298 290 288 294 300 302 303 305 305 306 307 305 304 309 316 314 316 329 340 346 349 347 346 347 347 348 350 350 349 348 348 348 349 350 352 351 350 350 350 350 351 351 350 349 347 345 344 344
294 293 290 292 294 297 301 305 304 303 302 304 308 304 309 312 313 314 316 340 343 349 346 344 345 347 346 346 345 345 346 347 347 348 348 349 348 347 348 349 349 349 349 348 347 345 344 344 343
298 294 291 291 293 295 302 303 303 303 305 313 309 303 303 311 312 312 313 321 340 345 349 345 344 344 342 343 343 344 345 345 345 346 346 345 346 346 346 346 347 348 347 347 345 343 343 343 342
299 291 288 291 293 296 302 301 303 304 302 306 309 310 311 312 311 310 309 311 337 341 345 346 344 344 342 342 344 344 345 345 344 345 345 342 347 346 346 345 345 345 344 344 343 342 341 341 340
294 289 291 298 297 295 298 296 299 300 300 301 304 308 309 309 308 307 307 307 309 331 340 345 345 343 342 345 341 341 344 345 345 346 346 345 345 345 346 344 342 342 341 342 341 340 339 339 337
292 290 296 299 299 299 295 296 299 296 295 301 300 303 306 307 306 307 308 307 307 313 342 345 345 344 346 343 341 341 341 342 344 344 344 345 346 345 345 344 343 342 340 340 340 339 338 338 337
290 296 297 298 299 297 295 296 296 297 298 301 299 302 304 305 305 306 306 306 306 307 319 344 344 343 342 343 343 340 341 340 342 343 345 345 344 343 342 342 341 341 341 339 339 337 337 337 337
292 295 297 298 297 296 297 295 295 296 298 300 301 302 301 302 304 304 305 303 304 308 312 339 341 341 342 343 340 342 341 340 341 341 345 345 342 340 340 340 341 342 341 341 339 338 337 337 336
296 296 295 296 295 295 295 294 293 297 298 298 299 298 301 301 302 301 302 302 306 312 313 315 318 326 337 337 336 337 340 342 340 342 343 345 343 340 341 337 341 341 341 341 340 338 336 335 335
296 291 293 295 296 294 296 290 291 296 298 298 296 298 300 299 301 304 307 308 310 311 313 313 315 317 317 320 328 336 338 340 339 342 343 344 344 341 341 340 339 341 341 341 340 339 337 335 335
291 291 286 293 296 297 293 287 292 296 295 294 297 298 298 299 305 305 306 306 307 309 309 311 313 312 312 313 317 322 328 334 338 340 341 344 344 343 340 341 338 341 340 340 338 338 336 335 334
290 285 288 291 297 293 290 288 294 296 296 295 295 296 296 296 303 303 304 304 305 305 306 306 308 308 309 311 313 315 318 325 333 338 340 341 342 343 340 341 340 338 339 338 338 337 337 334 333
284 286 288 288 293 292 289 288 292 296 295 293 292 294 294 299 300 303 303 303 302 303 303 303 305 307 307 308 309 311 313 315 320 332 337 338 340 342 341 339 336 338 336 336 337 335 336 335 333
290 290 287 289 294 292 290 289 290 294 292 291 293 293 298 298 300 300 300 299 299 299 299 300 301 303 304 304 304 305 306 309 312 317 322 337 338 340 339 340 336 336 336 336 335 335 334 333 334
291 288 287 291 294 292 288 287 290 291 292 293 294 296 296 296 297 298 297 296 296 296 296 297 297 298 299 301 302 303 304 307 310 314 317 320 329 338 339 337 337 339 336 334 335 335 333 333 334
289 287 287 287 289 288 286 285 287 292 294 298 296 296 295 294 293 293 293 292 292 292 292 293 293 294 295 297 298 300 303 304 306 309 312 316 322 332 337 337 337 337 337 333 335 336 334 330 332
284 291 290 289 284 279 286 277 285 289 291 294 293 292 291 291 292 291 290 290 289 289 290 290 291 291 293 294 293 293 295 297 302 304 308 310 315 320 329 337 337 336 337 336 332 337 336 332 329
287 292 288 287 282 281 283 277 283 289 288 289 290 290 289 290 289 289 288 288 288 288 288 288 289 290 290 290 291 291 291 296 299 301 301 304 309 315 321 328 335 337 336 337 335 333 335 333 331
292 288 287 285 281 275 282 280 280 284 287 288 289 289 288 288 287 287 287 287 286 286 286 286 287 287 288 289 289 289 289 292 294 296 297 299 303 308 315 321 328 334 336 335 336 336 335 334 331
287 282 274 274 274 275 285 282 285 287 288 288 288 287 288 286 285 285 285 285 284 284 285 286 286 286 287 287 287 288 289 291 292 293 296 297 300 303 309 317 321 329 332 335 336 334 333 331 329
285 283 277 272 272 275 283 278 282 288 289 290 289 288 287 285 285 285 284 284 284 285 285 285 286 286 286 286 286 287 289 290 291 293 295 296 298 301 305 309 315 324 329 331 333 333 330 325 326
285 279 286 280 279 276 278 282 286 288 286 287 287 286 284 283 284 283 283 283 284 284 285 286 286 285 286 286 287 288 289 290 291 293 295 296 299 301 303 307 312 318 325 328 329 331 330 329 327
285 288 276 278 272 271 276 279 280 281 282 285 285 284 283 283 282 282 282 283 284 285 286 287 286 285 285 286 287 289 291 293 294 296 296 297 299 301 302 304 307 314 321 326 326 327 329 329 329
284 280 282 281 278 271 268 270 284 280 283 283 284 284 283 282 281 281 281 283 284 285 285 286 285 285 285 286 287 289 290 292 293 294 297 298 301 302 305 305 308 313 320 323 321 324 326 327 329
286 283 283 273 275 278 277 273 284 283 285 284 283 284 283 282 280 281 281 282 282 284 284 284 284 284 285 286 287 287 289 290 291 291 293 295 297 303 307 309 310 315 313 315 315 316 319 313 326

GFSSGP_sfc_thetae_126.txt.gz
Theta_e
316 312 308 303 294 290 287 291 294 294 295 297 300 301 304 304 308 304 325 333 347 345 348 350 350 352 353 352 352 352 353 354 354 353 353 353 354 353 354 354 355 357 357 355 354 353 353 351 350
316 315 305 298 289 285 288 294 292 295 300 302 302 302 305 308 317 319 323 337 346 346 347 349 349 351 352 352 351 352 354 354 353 353 353 353 354 354 353 353 353 355 357 355 354 353 353 352 349
313 314 298 293 288 286 289 294 296 299 302 302 301 303 308 312 320 323 331 345 347 346 347 349 348 349 351 351 351 351 353 352 352 352 353 354 354 354 353 351 353 355 356 355 354 354 353 349 347
306 302 298 291 288 293 295 300 302 299 302 303 302 303 311 316 322 327 339 347 345 345 347 344 345 348 350 351 351 351 351 350 350 351 353 354 354 354 352 350 352 354 355 356 355 354 349 346 345
303 297 290 288 290 295 299 302 303 302 304 305 304 303 306 313 325 335 339 347 345 344 345 345 342 346 350 351 351 351 349 348 349 350 351 352 353 353 350 349 351 352 352 353 353 349 346 345 344
298 295 288 286 291 296 299 301 303 303 304 305 303 304 307 313 311 322 339 345 346 345 345 345 345 346 347 349 349 348 347 347 347 348 349 351 351 350 349 349 350 350 350 350 349 346 345 344 344
293 290 286 287 291 294 299 302 300 300 300 303 306 303 307 309 310 313 336 340 346 345 343 343 344 346 344 344 344 344 345 345 346 346 347 348 347 346 347 348 348 349 348 348 347 345 343 344 343
295 292 287 287 290 291 298 301 300 299 301 309 307 300 301 308 309 309 314 335 343 344 342 341 341 343 343 344 342 343 343 343 344 345 345 344 344 345 345 345 347 347 347 347 345 343 342 342 341
297 290 286 289 291 294 298 297 301 301 299 302 305 304 308 311 309 308 306 315 334 342 343 340 340 341 341 341 344 343 344 343 343 344 343 341 346 345 345 344 343 345 344 344 343 341 341 340 339
293 289 291 296 295 294 297 291 295 297 298 299 300 304 306 307 305 305 303 304 305 313 339 342 340 340 340 344 341 341 344 346 346 345 344 346 345 344 345 343 341 341 341 341 340 340 339 338 337
290 289 294 297 298 297 293 293 295 293 292 298 297 298 301 304 303 303 303 303 304 307 335 341 341 340 339 340 339 339 340 343 342 344 345 344 345 343 343 342 342 342 340 342 340 338 338 337 335
289 294 294 295 296 294 293 295 294 295 296 300 298 299 299 301 301 301 302 302 308 312 319 328 330 337 338 341 338 338 339 339 341 342 343 342 343 343 342 341 341 341 341 340 340 338 338 336 336
290 292 295 295 294 293 295 292 293 294 297 298 299 299 298 300 301 300 305 308 310 310 312 314 317 317 321 325 331 339 338 337 339 342 343 344 342 342 342 341 340 341 341 339 338 337 336 335 335
294 294 293 294 295 293 293 293 291 296 297 297 296 296 298 299 302 304 305 305 307 308 308 311 311 312 314 314 316 321 330 337 338 339 343 342 343 342 342 341 340 340 340 340 339 337 336 335 334
295 290 292 294 293 293 294 290 291 296 295 296 294 294 297 303 304 302 303 303 304 305 306 307 308 308 308 309 313 315 318 323 330 339 341 342 342 341 340 339 339 340 340 339 338 337 335 333 333
290 290 285 293 294 295 293 287 293 294 293 293 294 297 299 302 301 301 301 301 301 302 301 303 307 306 306 307 308 310 313 316 319 325 331 338 341 340 337 339 338 340 340 339 338 337 335 333 331
287 282 286 290 296 293 290 287 292 294 295 294 292 294 298 298 298 298 298 298 298 298 299 299 301 300 302 304 305 306 307 309 312 314 319 324 333 339 337 339 339 337 338 339 337 336 335 333 331
282 283 282 285 292 290 288 286 291 293 293 291 291 294 296 295 295 296 295 295 295 295 295 296 297 296 298 299 301 302 303 305 307 309 314 317 320 325 335 338 336 335 336 335 337 335 336 334 333
287 285 284 287 291 290 288 285 287 291 291 292 294 293 293 293 294 294 293 292 292 291 291 292 292 293 294 295 294 296 297 300 303 306 309 314 319 321 323 335 329 334 336 336 335 335 333 333 333
288 286 285 287 291 289 286 286 286 290 292 292 291 290 290 290 290 291 290 289 289 289 289 290 290 290 291 292 293 294 295 298 300 303 306 309 312 314 317 320 333 330 334 334 332 332 332 333 332
288 286 285 285 287 286 284 283 284 291 293 292 290 290 289 288 287 287 287 287 287 287 286 288 288 288 290 291 290 291 292 293 295 298 300 304 306 307 311 314 319 331 327 326 332 333 332 328 332
283 289 288 286 282 277 284 275 282 287 287 288 288 286 286 286 286 286 286 286 285 285 286 287 287 287 289 289 288 288 287 287 290 293 297 299 302 304 307 311 316 321 330 329 331 334 333 331 327
286 290 287 285 280 279 279 276 280 287 284 285 286 286 285 285 285 284 285 285 285 285 285 285 286 287 287 288 287 287 286 288 289 291 293 295 298 300 303 307 311 316 323 330 331 332 331 332 330
290 286 285 283 280 274 280 278 277 282 284 285 286 286 285 285 284 285 285 285 284 285 285 286 286 286 287 286 286 286 285 285 286 288 289 292 295 297 300 304 309 316 319 321 329 331 332 331 331
286 281 274 273 273 273 282 278 281 284 286 285 284 284 284 284 283 283 282 282 283 284 285 286 286 286 286 286 286 286 286 286 286 287 289 290 292 294 297 301 303 308 312 318 324 329 330 331 330
283 282 276 272 273 274 282 276 279 286 288 288 287 285 284 283 282 282 282 282 283 284 285 286 286 285 285 285 286 287 288 289 289 290 291 292 293 295 297 298 300 302 307 310 315 325 328 329 329
284 279 284 279 278 274 277 280 285 286 285 286 285 284 282 281 281 281 281 283 283 283 284 286 285 285 285 285 287 287 289 290 291 292 293 293 295 297 298 299 300 302 305 309 313 321 325 324 323
285 287 277 278 273 271 274 276 276 280 283 284 283 281 281 280 280 280 281 282 282 284 284 286 285 284 285 286 287 288 289 290 291 293 294 296 298 299 300 300 301 303 304 305 310 316 323 322 320
282 279 281 280 278 272 269 269 277 278 281 280 281 282 280 279 278 279 280 280 281 283 283 284 283 283 284 285 286 287 288 289 290 290 291 292 294 296 300 303 303 304 305 306 309 315 321 321 322
284 282 282 275 275 276 275 273 284 282 282 282 282 283 283 281 278 279 279 279 280 280 281 282 282 282 283 285 285 286 288 287 287 288 289 291 290 292 292 294 295 298 299 304 307 310 319 320 319

GFSSGP_sfc_thetae_129.txt.gz
Theta_e
317 310 307 302 293 289 286 290 292 293 295 296 298 304 304 304 306 300 325 338 344 344 348 349 349 351 351 352 351 351 353 353 353 353 352 352 353 354 354 354 355 354 354 352 352 352 350 350 349
313 312 303 296 289 284 288 292 292 294 299 301 301 303 307 307 317 319 325 338 345 346 347 349 349 350 351 350 351 352 353 353 352 352 353 352 353 353 354 353 353 355 355 353 352 352 350 350 348
310 309 298 291 286 285 287 294 297 302 301 300 299 306 308 311 320 324 330 345 345 344 347 348 348 349 351 350 350 351 352 351 351 351 353 353 353 353 353 352 352 354 356 353 353 353 351 348 346
305 301 296 290 288 291 292 298 299 299 301 303 302 304 311 314 322 329 339 346 344 343 345 344 345 347 350 350 350 350 350 349 349 350 352 353 354 353 352 350 352 355 356 355 354 353 349 346 345
301 296 289 287 288 293 296 298 300 301 302 304 303 301 305 312 329 336 340 344 342 342 344 344 343 346 349 351 350 350 349 348 348 349 350 351 352 352 350 350 351 352 354 354 353 350 346 345 344
295 294 287 285 288 294 296 297 299 300 302 303 303 302 305 311 309 328 340 341 343 342 343 343 345 346 347 349 348 347 347 347 347 348 349 350 350 349 348 349 349 349 350 350 349 346 345 344 344
293 290 287 286 289 292 295 299 298 297 298 300 304 302 305 307 308 314 333 338 341 341 341 341 341 345 344 343 344 344 344 345 345 346 346 348 346 346 347 347 348 348 348 348 347 344 343 343 343
294 291 286 286 289 289 296 297 297 297 298 305 304 298 299 305 308 308 317 334 340 340 339 338 338 340 341 342 341 342 343 343 343 345 344 343 343 344 345 345 346 347 347 346 346 343 342 342 341
295 288 285 287 290 292 297 296 298 299 296 300 303 302 304 308 307 305 304 309 327 332 338 337 337 338 339 340 343 343 344 343 342 343 342 339 344 343 343 343 343 344 344 344 343 342 340 339 339
291 287 289 294 294 294 296 293 295 296 296 297 298 302 302 306 304 303 303 302 304 309 328 338 336 336 338 342 340 340 342 345 344 343 342 345 345 341 343 342 340 341 341 341 341 340 338 338 336
288 287 291 294 295 295 293 291 294 293 292 296 296 299 300 302 301 302 301 306 309 313 314 317 324 335 337 339 339 337 339 343 342 344 345 345 343 343 342 340 340 340 340 341 339 336 336 336 335
286 291 292 293 293 291 291 293 292 294 296 299 298 298 297 298 300 304 306 306 306 308 310 311 313 315 318 321 325 335 339 340 340 341 342 342 341 341 341 341 342 342 342 341 341 338 337 334 334
288 290 293 294 293 291 292 291 292 294 296 297 297 298 297 300 303 304 304 304 305 304 307 308 308 309 312 314 316 319 322 327 336 340 341 342 340 340 340 340 340 341 341 340 338 338 337 335 333
292 291 291 292 292 292 291 291 290 295 295 296 296 296 301 301 301 300 300 300 301 302 302 305 305 305 307 308 310 313 317 322 326 330 333 338 339 338 340 340 341 339 341 339 338 336 335 334 334
293 288 290 291 290 290 292 289 290 295 294 294 296 299 298 297 298 296 297 296 297 298 299 299 300 299 301 304 306 308 311 316 317 322 324 325 326 335 338 339 339 339 341 339 338 336 336 333 334
289 287 283 291 293 293 291 286 292 294 292 293 295 295 295 294 294 294 294 293 293 294 294 295 297 296 296 298 301 303 306 308 310 313 317 322 323 323 323 336 337 338 339 338 338 335 333 333 332
284 280 283 288 293 292 290 287 293 294 293 291 294 294 293 291 291 291 292 291 291 291 291 291 293 292 293 295 297 298 302 303 305 307 311 313 316 321 323 331 333 333 335 337 337 336 334 332 331
280 281 281 282 289 289 286 286 290 292 292 292 291 291 290 289 289 290 290 290 289 289 290 290 290 291 291 293 293 295 298 298 300 303 305 309 313 318 321 323 323 328 328 334 336 335 335 333 332
285 283 281 284 289 287 286 284 285 291 290 288 288 288 287 287 289 289 289 288 288 288 287 288 288 288 289 290 289 290 291 291 296 297 301 306 309 312 314 318 319 317 327 329 332 334 334 332 332
286 283 283 286 289 287 283 282 286 288 287 287 286 285 286 286 286 287 287 286 286 286 286 287 286 287 288 288 288 289 289 291 292 295 298 300 304 305 305 307 312 316 323 327 328 331 330 332 332
285 284 284 284 285 284 282 280 284 288 289 288 287 286 286 285 284 285 285 284 284 284 285 286 286 286 287 288 288 287 288 289 290 290 291 295 297 300 304 305 308 313 318 324 324 327 329 326 330
283 287 287 284 281 277 282 274 282 285 285 285 285 283 283 283 284 285 284 283 283 284 285 286 286 286 288 288 286 285 284 284 286 287 289 291 294 297 300 302 303 307 312 316 324 326 324 326 325
284 288 285 284 279 277 277 275 277 284 282 283 283 284 283 283 283 283 283 283 284 284 285 286 288 287 287 286 286 285 284 285 286 287 287 289 291 294 296 300 302 304 309 315 320 324 322 323 326
289 285 283 281 279 274 278 277 275 280 282 283 284 283 283 283 282 283 283 283 283 284 285 286 287 285 287 286 286 286 285 285 286 287 287 288 290 292 294 296 298 302 307 312 319 321 325 325 327
284 280 274 273 273 273 280 277 278 282 284 285 283 282 282 282 281 281 280 282 283 283 284 285 285 284 285 285 286 286 286 287 288 288 289 290 291 293 294 295 297 298 301 304 305 308 317 324 326
281 281 275 272 272 275 280 275 278 285 286 286 285 283 282 281 280 280 280 282 282 283 283 284 284 284 285 285 286 287 288 288 289 291 292 292 292 293 295 296 297 297 299 300 303 306 309 316 324
282 278 282 278 277 273 276 279 283 285 284 285 284 282 280 279 279 279 281 281 282 283 282 284 283 283 283 285 285 286 288 288 289 290 292 293 295 296 297 298 299 299 300 301 303 303 306 314 321
284 286 277 278 273 271 274 275 275 279 282 284 281 279 279 278 278 279 280 280 281 281 281 282 282 282 283 284 284 285 286 288 289 289 289 291 293 294 295 297 297 300 301 302 303 303 305 309 315
281 279 280 280 278 272 272 270 277 279 282 280 280 280 278 277 276 277 277 279 279 280 280 281 281 281 281 282 283 284 284 287 287 287 288 289 290 290 291 293 294 300 302 305 305 305 306 308 315
283 281 281 275 275 276 275 275 284 280 280 281 280 281 280 278 277 277 276 275 277 279 279 280 280 280 280 282 282 282 283 286 285 285 286 287 288 289 289 290 291 291 294 298 302 307 310 312 315

GFSSGP_sfc_thetae_132.txt.gz
Theta_e
315 309 304 301 293 288 286 288 291 293 294 295 300 298 300 304 305 298 323 336 343 343 347 349 349 351 351 351 351 351 352 354 353 352 353 354 354 354 354 354 354 355 355 352 352 351 350 349 350
311 310 301 295 288 284 286 291 292 295 298 298 302 305 307 307 316 319 325 336 343 344 346 347 349 349 350 350 350 351 353 353 353 352 352 353 354 353 353 353 352 353 354 353 351 351 350 350 348
308 305 298 290 285 284 286 293 296 298 300 298 300 307 308 311 320 323 329 344 344 344 346 347 348 348 350 350 350 351 351 351 351 352 353 354 354 354 353 352 352 353 354 354 352 351 350 348 345
303 300 295 289 287 291 291 296 296 297 300 304 302 303 309 313 318 325 340 344 341 342 345 343 345 347 350 350 350 350 350 349 349 350 352 353 354 354 353 351 352 354 355 354 354 353 349 345 344
299 295 289 286 287 291 295 296 297 299 300 302 302 299 306 312 316 333 337 343 340 341 343 344 343 346 349 350 350 349 348 347 348 349 351 352 352 352 351 350 351 353 354 353 353 351 347 345 344
295 293 287 285 288 292 294 295 296 299 298 300 302 301 303 309 308 313 331 341 342 341 342 342 345 345 346 348 348 347 346 346 346 347 349 351 351 349 349 349 350 350 351 350 350 347 345 344 343
292 290 287 286 288 290 293 297 296 295 295 298 302 300 303 305 307 312 328 341 342 341 340 339 340 343 344 343 343 343 344 345 345 345 346 347 346 345 347 348 348 348 348 348 347 345 343 344 343
292 290 287 286 287 288 295 296 296 295 296 303 301 297 298 304 306 306 326 317 328 331 338 337 338 339 340 341 340 340 341 342 343 344 343 342 343 343 344 345 346 347 346 347 346 343 342 342 341
293 287 284 286 289 291 295 295 296 298 295 299 301 300 302 303 306 304 303 310 313 322 326 337 336 337 337 339 342 343 344 340 342 343 342 338 343 341 342 342 343 344 343 344 344 342 340 339 339
290 286 287 292 292 291 294 290 293 294 294 295 296 300 302 303 302 304 307 308 308 309 313 317 321 325 337 340 338 337 343 343 344 343 343 343 345 344 342 341 340 341 340 341 341 340 338 338 336
288 286 289 291 292 291 289 289 292 291 290 295 295 297 299 301 305 305 305 305 305 307 308 308 310 314 315 318 325 335 340 342 343 341 342 344 343 343 343 340 339 339 339 341 339 337 336 336 335
284 289 289 290 291 290 289 291 291 292 295 297 296 296 303 302 302 302 301 301 301 301 303 305 304 306 308 312 314 317 321 327 336 339 340 340 339 338 339 341 341 341 342 342 341 339 336 336 334
286 288 291 291 291 290 292 290 291 293 295 295 301 301 300 298 297 297 297 297 297 296 297 299 299 299 302 305 307 310 313 318 323 330 328 333 338 338 339 340 340 339 340 340 338 338 337 335 335
290 289 290 290 291 290 289 290 288 293 294 297 297 295 295 294 294 293 293 292 293 294 294 295 296 295 296 299 301 304 307 311 315 319 323 326 328 330 338 337 339 338 339 340 339 337 336 334 334
291 287 289 289 288 288 290 287 288 292 296 294 293 292 292 291 291 290 291 290 290 291 292 292 294 293 292 294 296 299 303 306 307 309 314 317 322 322 323 329 335 337 340 339 337 337 334 333 333
286 285 282 288 291 291 289 285 290 291 294 291 291 291 290 290 289 290 289 289 289 289 289 291 292 291 291 292 294 295 298 302 302 303 309 311 311 316 320 322 329 330 332 338 337 336 333 333 332
283 279 281 286 291 290 289 286 289 292 294 291 289 289 289 288 288 289 288 288 288 288 288 288 289 289 289 291 292 292 295 297 295 300 301 304 306 314 315 318 322 330 327 320 332 335 334 331 331
278 279 278 280 287 287 285 286 288 291 290 287 286 286 286 286 287 288 288 287 287 286 287 287 288 288 289 290 290 290 292 292 293 296 296 300 306 307 310 312 315 318 321 320 323 327 332 332 332
283 281 280 282 287 285 285 284 285 288 287 285 285 285 285 285 287 287 287 286 286 286 286 287 287 287 287 287 286 287 288 289 291 292 295 298 297 304 304 303 306 309 313 317 324 324 326 326 331
284 282 281 284 288 286 284 282 284 286 285 285 284 283 283 284 285 286 285 285 284 284 285 286 286 287 287 287 287 287 287 288 289 291 292 293 296 296 297 299 303 306 308 313 320 323 321 322 326
283 282 282 283 284 282 281 279 284 286 286 287 285 284 284 283 283 284 284 283 283 283 284 285 286 287 287 287 287 286 287 287 287 287 288 290 291 293 295 298 300 302 305 308 313 321 323 320 323
280 287 286 284 280 276 280 274 279 284 284 284 284 282 282 282 283 283 283 282 282 283 284 286 287 286 287 287 286 285 285 284 286 287 288 288 290 292 294 295 296 298 299 303 307 313 325 324 318
285 287 284 282 278 276 276 274 276 283 281 282 282 283 281 282 282 281 282 282 282 284 285 284 287 285 287 287 287 286 285 286 287 288 288 290 291 292 292 294 295 297 300 302 305 310 314 323 322
288 284 282 280 277 273 277 276 275 279 282 282 283 282 282 281 281 281 282 283 283 285 284 283 286 285 286 285 286 285 285 285 285 286 288 290 292 293 294 295 296 295 296 298 304 311 314 319 321
284 280 274 273 272 273 279 276 278 282 284 285 284 281 281 280 279 279 280 280 282 282 281 282 283 282 283 284 285 285 286 287 287 287 289 290 291 292 294 295 296 297 296 297 299 301 304 307 320
281 280 275 271 271 274 278 275 278 284 285 285 284 282 281 279 279 278 280 279 280 280 280 281 281 281 282 283 284 283 286 286 288 288 289 291 291 293 296 296 296 297 298 297 298 299 300 304 307
282 278 281 278 277 273 276 278 282 283 283 283 282 282 279 278 277 278 279 279 279 280 279 280 281 281 282 282 283 283 284 286 286 287 289 290 291 292 294 295 296 298 299 299 299 300 300 305 308
283 285 276 277 272 271 275 275 277 279 281 283 281 279 278 277 277 277 278 278 278 279 279 279 280 280 281 281 282 283 283 286 286 286 286 288 289 290 291 292 294 296 299 300 300 301 302 304 305
280 279 280 279 277 272 271 272 277 277 282 283 280 280 277 275 274 275 275 276 277 277 278 279 280 279 279 280 281 281 281 283 284 283 284 285 288 288 289 290 290 291 294 297 302 302 304 305 306
282 280 280 273 275 276 275 275 282 279 279 281 279 279 278 277 275 274 272 272 273 274 277 279 279 278 278 279 280 280 280 281 282 281 282 284 284 287 287 288 288 288 290 292 294 298 304 307 307

GFSSGP_sfc_thetae_135.txt.gz
Theta_e
319 315 312 310 303 300 296 297 299 301 302 308 305 308 310 313 311 309 333 342 349 348 352 353 350 351 351 351 351 352 353 354 355 355 354 354 354 355 355 355 354 356 355 353 352 351 349 350 350
314 314 310 305 299 296 297 299 299 301 304 305 307 312 313 313 320 326 333 346 348 349 352 353 349 350 351 350 351 352 353 353 353 354 355 355 355 355 355 354 353 354 354 353 352 351 350 350 349
312 308 307 301 296 295 297 299 300 303 304 303 309 314 314 316 323 329 344 350 349 349 351 352 348 348 350 351 351 351 352 352 351 352 354 355 355 355 354 352 352 354 355 353 352 351 352 348 346
310 309 303 299 296 298 298 301 301 303 307 309 309 310 316 319 324 336 347 349 348 349 350 348 346 348 350 350 350 350 350 349 350 350 352 353 354 354 353 351 351 353 354 354 354 353 350 345 344
307 305 298 296 296 299 301 302 301 302 304 306 308 307 312 318 319 330 346 348 347 348 350 350 343 346 349 351 350 350 349 348 348 350 351 352 353 353 351 350 351 353 354 353 353 352 347 345 344
305 303 297 295 296 298 300 301 301 302 303 304 308 307 309 314 316 323 346 348 349 348 349 350 347 346 346 347 348 347 347 347 347 347 349 351 350 348 348 349 350 351 351 351 350 349 346 344 344
301 300 295 295 296 297 299 302 300 301 302 303 307 305 310 311 314 331 328 326 335 343 348 349 349 348 344 341 342 342 342 343 346 346 346 347 344 345 348 348 349 346 347 348 349 346 344 344 343
301 300 294 294 295 296 300 301 301 301 301 306 307 304 306 310 312 314 321 323 324 322 320 327 339 347 348 348 341 341 342 342 341 343 344 343 341 341 345 345 344 346 347 347 347 344 343 343 342
301 298 294 294 294 297 300 298 303 303 301 304 305 306 304 309 315 316 316 315 315 315 313 314 316 318 328 339 344 344 344 341 341 344 342 341 350 351 348 345 343 344 344 345 345 343 341 340 340
299 297 295 298 299 296 297 297 299 299 299 301 302 306 310 312 312 310 308 307 307 307 308 308 310 312 316 322 326 332 342 348 348 344 344 347 348 348 348 343 338 338 339 342 341 340 339 339 345
295 296 296 296 297 296 297 297 298 298 297 300 299 303 307 307 306 304 303 303 302 301 303 303 303 306 309 313 316 319 325 331 338 343 344 345 346 347 346 346 348 349 342 349 345 346 347 345 345
293 294 295 296 296 295 295 297 297 298 298 303 304 304 303 301 299 299 299 299 298 299 299 301 301 301 303 307 308 311 314 319 326 327 330 339 344 345 343 343 344 345 345 344 346 345 347 346 344
292 294 295 297 295 295 295 295 296 295 300 302 301 300 298 297 296 296 296 296 297 296 298 298 300 298 299 301 303 306 308 313 316 318 322 326 328 334 341 343 344 343 344 342 341 342 342 343 343
295 295 295 295 296 295 294 295 296 295 299 297 296 295 295 294 294 295 294 294 294 295 295 297 297 297 297 298 300 301 304 309 311 311 317 322 323 324 325 328 338 341 343 341 339 339 340 341 342
295 293 294 295 296 296 296 294 290 297 298 295 294 294 293 293 293 292 292 292 293 293 294 295 296 296 296 297 298 299 301 305 306 305 314 311 312 314 322 325 326 334 333 333 333 337 339 339 339
291 291 289 294 296 295 295 290 293 297 296 293 293 292 292 291 291 292 292 292 292 292 292 294 294 295 295 295 297 297 299 303 301 303 307 305 308 314 318 320 323 328 329 323 321 321 322 332 335
289 287 287 290 293 294 294 291 293 296 295 292 292 291 292 291 291 292 291 291 291 291 292 292 294 293 294 295 295 297 298 299 298 301 300 303 308 308 310 314 319 321 323 326 323 318 315 312 329
285 285 286 287 292 292 292 292 292 293 293 291 290 290 290 290 289 291 291 291 291 291 292 292 293 293 293 294 294 295 296 296 297 297 298 302 301 301 305 307 309 311 313 319 324 320 317 314 325
288 286 285 288 292 290 291 291 291 291 290 290 289 289 289 289 290 291 290 290 290 291 291 291 291 292 292 292 291 292 292 293 295 295 297 297 297 300 300 301 304 307 308 312 317 321 323 322 325
287 286 286 289 291 290 290 289 290 290 289 289 288 288 288 289 289 289 289 289 289 289 290 290 291 292 291 291 291 291 291 292 293 294 295 295 296 296 297 299 300 303 306 308 311 316 322 325 330
287 286 286 287 289 289 288 287 288 289 289 289 288 288 287 287 287 287 287 288 288 288 289 289 290 290 291 291 291 291 292 292 292 292 293 294 295 296 296 297 299 301 303 304 307 312 316 318 326
285 290 289 288 285 283 287 281 286 288 288 289 288 288 287 286 287 287 286 287 287 288 289 288 289 289 290 290 289 289 287 286 289 290 291 292 294 295 297 297 298 299 301 302 304 306 310 313 319
288 291 288 287 285 283 283 282 285 286 287 289 289 288 287 286 285 285 285 286 287 287 288 287 288 288 288 288 288 287 286 288 289 290 290 291 293 294 295 296 299 299 300 301 303 305 307 312 311
291 288 286 285 284 279 284 283 285 286 288 288 289 288 286 285 285 285 285 286 286 287 286 286 287 286 287 286 286 286 285 286 287 288 288 289 292 294 295 296 297 299 299 299 300 302 303 306 310
288 286 281 279 278 278 282 281 285 287 289 290 290 288 286 285 284 284 284 284 284 285 285 285 285 284 285 285 285 285 284 285 285 287 288 288 290 292 293 295 296 298 298 299 299 299 300 301 305
285 286 281 274 275 279 282 279 285 288 289 289 288 287 285 284 283 283 284 283 283 284 284 284 283 283 284 284 283 284 285 285 287 287 287 288 288 290 293 294 295 296 298 299 300 299 299 302 304
284 282 286 282 280 278 282 284 286 287 287 287 287 286 285 283 283 283 283 283 282 283 283 283 282 283 283 283 283 283 284 284 285 285 286 286 287 290 290 291 292 294 295 298 299 299 299 300 303
287 289 282 282 275 274 280 281 283 285 287 287 287 286 285 282 282 282 282 281 282 282 283 283 283 282 282 283 283 283 283 284 284 284 283 284 286 288 289 290 290 291 294 296 299 299 301 301 303
284 283 283 284 281 277 276 281 288 287 288 288 288 287 284 282 280 280 279 280 280 281 281 281 281 280 281 282 282 282 281 282 282 282 282 283 285 287 288 288 288 288 290 293 296 300 301 302 304
286 285 285 281 279 280 279 280 286 287 287 288 287 286 284 282 281 279 278 278 278 279 280 280 280 279 280 281 280 280 280 280 280 280 281 282 283 285 285 287 286 287 287 289 290 291 292 293 293

GFSSGP_sfc_thetae_141.txt.gz
Theta_e
325 326 325 320 309 309 306 306 310 307 309 315 315 321 322 325 322 318 343 348 351 355 355 354 352 351 350 351 351 353 355 355 356 355 355 355 354 354 355 355 356 357 358 355 353 351 350 351 351
324 322 322 317 306 304 305 309 306 309 312 316 317 318 321 320 330 333 340 349 351 353 356 356 351 352 351 350 351 351 352 354 355 355 354 354 354 355 355 354 354 356 358 356 353 351 349 350 351
323 321 315 312 308 304 305 308 309 310 312 312 314 321 322 322 329 335 345 349 351 351 356 354 351 352 352 352 352 352 352 351 352 354 355 355 355 355 355 354 354 356 356 354 353 352 351 350 348
320 319 316 307 306 308 309 309 310 310 310 312 316 317 324 330 332 341 347 350 352 350 352 348 347 349 351 353 353 352 351 351 350 351 354 355 355 355 353 353 353 355 356 355 354 354 353 348 346
320 317 308 307 306 308 309 310 312 310 311 311 315 316 317 328 342 345 348 345 345 341 337 338 334 339 347 348 349 350 350 350 350 350 351 352 353 353 353 351 352 354 355 355 354 354 351 347 346
313 315 306 305 306 307 309 310 311 311 312 313 315 315 315 333 335 341 341 337 332 331 330 332 334 334 335 338 340 345 347 347 348 349 349 351 351 349 350 351 351 351 352 352 352 351 349 346 345
311 311 307 307 306 305 308 311 308 310 312 312 317 312 317 325 333 335 338 337 334 331 329 327 327 329 333 333 334 339 343 345 346 346 347 348 348 348 348 348 349 349 349 349 349 349 348 346 344
313 311 307 308 305 305 308 308 310 309 308 314 316 311 310 318 328 330 330 328 328 327 327 326 326 325 328 334 333 336 338 339 344 345 345 343 345 346 346 346 347 348 348 348 348 347 346 345 343
315 307 305 306 305 307 308 306 310 311 310 311 314 315 316 320 322 322 322 322 322 321 321 321 321 322 325 328 331 335 338 338 339 340 337 343 349 350 349 345 344 345 346 346 346 344 345 343 343
310 307 307 310 310 308 307 308 307 308 307 308 311 314 317 318 318 317 316 315 316 316 316 318 318 318 320 322 326 329 331 334 338 335 335 340 346 350 347 344 341 342 342 343 343 343 343 342 345
309 306 309 307 308 306 307 307 308 307 305 307 309 310 313 314 314 313 312 312 312 314 314 314 315 317 317 318 319 322 324 326 330 332 331 332 338 342 349 350 351 351 343 348 343 344 345 345 343
304 305 306 306 305 305 304 307 305 306 307 310 310 311 310 309 309 309 309 309 310 311 311 312 314 314 315 316 316 317 318 320 323 325 327 329 332 331 336 339 343 346 350 345 347 347 348 346 344
303 303 304 305 305 305 306 304 304 304 307 309 309 308 307 307 308 308 309 309 309 308 310 311 312 312 313 314 314 315 315 316 317 321 321 323 322 324 328 331 336 342 343 342 345 344 346 345 342
304 304 304 305 305 305 303 304 305 304 307 306 306 305 306 305 306 307 307 307 307 308 308 310 309 311 312 312 313 313 314 314 315 317 316 320 319 319 320 323 328 334 338 340 340 334 339 342 342
304 300 303 304 305 303 304 300 301 305 306 305 305 305 304 305 305 305 306 306 306 307 308 308 308 310 310 310 311 311 312 312 313 314 315 316 316 316 319 320 321 324 331 335 337 339 335 327 331
300 302 297 303 303 303 302 298 303 306 305 304 304 304 304 303 304 305 305 305 306 306 306 308 307 309 309 309 309 309 310 311 311 312 312 314 313 314 314 313 314 319 324 325 329 333 331 329 327
301 295 298 299 303 302 302 299 303 306 304 303 304 304 304 303 304 304 304 304 305 305 305 306 307 307 307 308 308 309 310 310 310 310 310 311 310 311 310 310 312 316 316 318 319 324 332 328 326
296 296 297 297 300 300 299 299 303 304 304 304 304 304 303 302 301 302 303 304 304 305 305 305 305 306 306 306 307 307 307 308 308 308 308 309 308 309 308 308 310 311 311 313 315 318 321 327 327
297 296 296 299 301 297 298 299 302 304 303 303 303 303 303 302 302 302 302 303 304 304 304 303 303 304 303 303 302 302 302 304 305 306 307 307 307 307 306 306 307 309 309 310 313 314 316 318 324
296 295 295 299 300 298 298 299 302 303 303 303 304 303 303 302 302 301 302 303 303 303 303 302 302 302 302 301 300 301 301 302 303 305 306 305 305 305 304 304 304 306 307 308 310 311 311 315 320
296 295 295 295 299 300 298 297 299 303 303 303 303 303 303 302 301 300 301 301 302 301 301 300 301 301 301 300 300 300 300 300 300 300 299 301 301 300 300 300 300 301 303 304 307 309 310 310 316
293 299 296 295 294 291 297 289 296 300 298 300 301 302 302 301 300 300 300 300 300 300 301 301 301 300 300 300 298 296 295 293 295 296 296 296 297 296 297 297 297 298 298 299 301 305 308 310 309
295 298 297 296 295 294 294 291 295 298 297 298 301 302 303 302 300 299 299 299 299 300 300 301 300 299 299 298 297 295 293 293 293 292 291 291 293 293 294 295 296 296 297 298 299 299 302 304 305
299 296 295 296 294 287 292 292 292 295 296 297 300 302 302 301 299 298 299 299 299 300 300 300 299 298 298 297 296 294 291 290 289 289 288 289 290 292 292 293 293 294 295 296 298 299 299 300 303
296 294 288 286 286 285 293 290 293 297 298 298 298 301 302 301 299 298 298 298 297 297 298 298 297 296 296 295 295 293 291 289 287 287 287 287 288 289 290 291 291 292 294 295 297 297 298 300 300
294 294 288 281 283 287 291 287 294 298 299 301 300 301 302 300 299 298 297 297 295 295 295 295 294 294 294 294 293 292 290 288 287 287 287 287 287 288 289 290 290 291 292 293 295 296 298 299 300
294 291 296 289 290 286 289 292 296 297 297 298 299 300 300 300 299 298 296 296 294 293 293 293 291 291 292 292 292 291 289 287 286 287 287 287 288 288 288 289 289 290 291 291 292 295 296 299 300
296 297 287 289 280 279 286 288 290 293 295 297 298 299 300 300 298 296 295 293 293 291 292 291 289 289 291 292 291 289 288 286 286 287 286 286 287 288 287 288 287 287 288 289 291 291 298 297 298
291 290 290 291 289 282 281 288 298 296 295 296 297 298 301 300 298 295 293 292 289 289 289 287 286 287 288 289 289 287 285 285 285 285 286 285 286 287 287 285 285 285 286 286 287 288 289 290 290
295 292 292 286 284 287 286 288 298 299 299 298 298 299 300 301 298 294 286 285 285 284 284 284 285 285 285 285 286 285 284 284 284 284 285 285 284 286 286 286 284 284 284 284 284 284 286 286 286

GFSSGP_sfc_thetae_144.txt.gz
Theta_e
322 324 324 319 306 307 303 305 310 307 309 314 320 322 320 324 322 317 342 348 354 350 352 350 352 353 353 353 354 355 356 356 355 355 355 354 354 354 354 355 355 356 357 356 354 351 349 351 353
318 321 320 314 304 301 303 309 306 309 313 318 318 323 321 319 332 335 339 346 353 353 352 351 352 353 353 353 353 353 353 354 356 355 354 354 355 355 354 354 354 356 357 355 354 352 351 352 351
319 321 311 310 305 301 303 308 309 310 312 314 315 323 322 323 333 340 345 348 351 349 344 342 346 350 352 353 353 352 353 352 352 354 355 355 355 355 355 353 353 355 357 357 354 353 353 351 347
317 317 313 305 303 307 307 309 310 309 310 313 319 317 325 336 340 343 346 345 342 341 340 335 338 344 346 348 350 351 351 351 351 352 352 355 354 354 353 352 353 355 356 356 355 355 352 348 346
318 314 306 304 305 307 309 310 312 310 309 311 319 316 323 336 340 340 339 338 334 331 335 334 334 337 338 341 345 346 347 347 349 350 351 352 353 353 352 350 351 351 353 355 354 354 352 347 345
311 313 303 302 305 307 309 311 311 311 312 312 315 316 324 333 335 336 336 334 333 330 330 330 332 335 337 336 338 341 343 344 346 347 349 350 350 350 349 350 350 350 350 350 352 351 350 347 344
309 308 304 305 305 305 307 311 309 310 311 312 317 313 321 326 331 332 331 330 328 328 327 327 328 329 334 335 334 337 339 340 341 344 344 345 346 346 347 348 348 348 349 347 349 348 348 347 344
312 309 304 306 305 305 308 309 310 309 308 315 317 309 312 324 328 327 327 325 323 322 322 321 322 323 325 331 334 336 338 339 339 340 338 340 342 344 346 345 346 347 347 347 347 346 346 346 344
315 304 301 304 305 305 308 307 310 311 310 312 314 314 317 322 323 322 321 319 319 319 318 319 318 319 320 325 326 332 335 336 337 335 335 336 340 345 345 343 341 343 344 344 344 344 343 344 343
308 303 304 309 309 308 308 308 308 307 308 308 310 314 317 318 317 314 313 313 313 314 314 316 317 316 317 318 321 323 325 325 331 330 330 332 335 340 341 343 339 340 341 342 342 342 342 342 344
308 303 308 308 307 308 308 307 309 306 304 309 308 310 313 312 312 311 310 310 310 311 312 313 315 317 316 316 317 317 318 320 323 325 326 325 327 333 332 336 342 342 339 341 341 341 342 343 343
302 307 307 307 306 306 305 308 306 308 307 311 311 311 310 309 308 308 308 308 308 309 310 312 313 314 315 316 314 315 315 317 315 319 323 319 320 320 321 325 329 337 343 340 338 339 340 340 341
303 305 305 307 306 305 307 304 305 305 308 309 309 309 308 307 307 308 308 308 309 308 310 310 311 311 312 313 313 314 315 314 315 317 319 316 317 316 317 318 321 325 333 340 339 338 336 335 337
305 305 304 305 305 306 303 304 305 305 308 307 307 306 306 306 307 307 307 306 307 308 308 310 309 311 310 310 311 312 313 312 313 315 315 316 315 314 313 315 318 318 321 325 333 333 332 331 335
304 300 302 303 304 303 304 300 301 305 306 305 305 305 305 305 306 304 305 305 306 306 307 308 309 310 308 309 310 311 311 311 311 313 314 313 314 311 311 311 311 313 315 317 321 326 335 330 329
300 300 295 302 303 303 302 296 302 305 304 303 304 304 304 304 304 304 305 305 305 306 306 307 307 308 307 308 309 309 310 309 311 310 310 313 312 309 309 307 308 310 312 314 315 316 318 327 325
299 293 296 299 304 303 300 298 303 305 304 303 303 303 304 303 304 304 304 304 304 304 305 304 306 305 305 306 306 306 308 307 307 308 308 310 309 310 307 306 307 308 308 309 311 312 313 315 322
295 295 297 297 301 300 299 298 303 304 304 303 303 304 304 303 301 302 303 304 304 305 305 304 304 304 304 304 303 304 304 304 305 305 306 307 307 307 305 305 305 306 306 306 308 309 311 313 314
298 296 295 299 301 299 298 298 300 303 303 303 303 303 303 303 302 303 304 305 305 305 304 302 302 303 302 300 299 299 298 300 301 302 304 303 303 304 301 301 301 302 302 303 305 306 306 308 311
297 295 295 298 300 299 297 297 301 303 303 303 303 303 303 302 301 302 303 304 304 303 302 302 301 301 301 299 299 299 298 299 300 301 299 300 298 298 297 297 298 298 298 297 299 302 304 306 310
296 294 294 295 299 300 297 295 298 302 304 304 304 305 304 303 302 301 301 302 304 301 301 300 301 300 300 299 298 297 297 297 296 294 295 294 294 294 295 295 295 295 296 296 297 298 299 300 306
294 300 297 295 293 289 298 287 296 299 300 301 302 302 302 301 301 301 301 301 301 301 302 301 301 300 299 298 296 294 292 290 291 292 291 291 293 293 293 293 294 293 293 294 296 297 298 299 298
298 300 297 296 293 293 293 289 293 299 296 297 300 301 302 302 301 300 300 299 300 301 301 301 301 299 298 297 296 293 291 291 290 290 289 290 290 291 292 292 292 291 292 293 294 295 296 297 297
301 297 296 295 293 286 290 290 290 294 297 299 300 301 302 301 300 300 300 299 300 301 301 301 299 298 296 296 295 292 290 289 287 287 287 287 288 289 290 291 290 291 291 291 292 294 296 297 297
297 292 285 284 284 284 293 290 293 297 299 299 299 301 302 302 300 299 299 299 298 298 298 297 296 294 294 294 293 292 290 288 287 286 286 286 286 287 288 289 289 289 290 291 292 292 293 295 295
294 292 287 280 282 286 293 287 290 298 300 301 300 302 303 301 301 300 299 298 297 296 295 294 292 291 293 293 292 291 289 288 287 286 286 286 286 287 288 288 288 288 289 290 291 292 293 295 296
293 289 295 289 290 286 288 293 295 297 297 298 298 300 301 301 300 299 298 297 295 294 293 291 289 290 291 292 291 289 288 286 285 286 286 286 286 287 288 287 286 287 287 288 290 290 290 293 295
295 298 289 289 280 279 285 287 289 292 294 297 297 298 300 301 300 298 297 295 293 292 292 289 288 287 289 289 288 286 285 285 286 286 285 284 285 286 286 286 285 285 286 286 287 288 288 289 290
292 291 292 291 288 281 280 289 297 296 298 297 299 299 301 302 299 297 295 293 291 288 288 286 287 286 286 286 286 285 284 285 285 285 285 285 285 285 285 285 284 284 285 285 285 285 285 285 286
296 293 292 285 283 287 285 286 299 300 300 299 298 299 301 302 299 293 285 285 286 284 283 284 284 283 284 284 284 284 284 284 284 284 284 284 284 286 285 284 283 283 283 284 283 284 284 283 283

GFSSGP_sfc_thetae_147.txt.gz
Theta_e
318 313 312 311 297 295 292 297 299 302 305 318 323 325 323 325 321 315 344 347 348 347 349 351 350 352 352 353 353 353 355 356 356 354 353 353 353 353 353 353 354 355 356 354 353 351 349 353 352
315 314 310 304 295 290 292 298 300 306 311 321 322 324 324 324 334 336 339 343 343 342 342 345 348 349 351 351 352 352 353 353 354 356 354 353 354 353 353 353 352 354 355 356 354 352 352 352 350
314 315 302 298 293 291 293 300 301 304 310 314 316 322 326 329 337 338 339 341 339 336 336 338 342 344 347 348 349 350 350 350 351 352 354 355 354 353 353 352 352 353 355 355 353 354 353 349 346
309 305 303 294 293 297 298 301 303 304 307 319 320 323 330 337 335 336 334 331 331 331 332 333 338 340 344 346 346 346 346 346 348 349 351 352 353 354 352 350 350 353 355 354 354 353 352 348 345
306 302 295 294 296 299 301 304 307 305 309 318 324 321 323 331 335 333 330 329 326 326 328 330 334 338 339 341 343 343 344 345 346 347 348 350 351 350 350 350 349 350 352 353 353 352 350 348 345
301 301 292 291 296 300 302 304 307 308 315 320 320 319 321 331 328 327 325 322 322 321 322 323 327 331 336 336 338 340 341 342 342 341 342 344 345 346 347 348 348 348 348 348 350 350 349 348 345
299 296 294 295 298 298 303 306 305 305 305 308 322 315 320 321 323 322 319 318 318 318 317 317 317 320 325 330 333 336 339 339 338 337 337 340 342 344 344 345 346 346 346 346 347 347 347 347 345
302 299 295 296 297 296 304 306 305 305 307 315 315 311 313 320 322 320 317 315 314 314 313 313 313 314 314 315 327 331 333 336 336 334 335 334 337 341 341 342 344 344 345 345 344 344 345 345 344
304 295 292 294 298 298 305 304 305 310 308 311 312 318 321 321 320 314 311 310 310 311 310 310 311 312 312 314 319 321 328 327 330 328 330 328 329 334 336 339 340 341 342 342 343 343 342 342 342
299 293 295 299 299 299 304 299 303 305 306 307 309 312 314 314 310 307 306 305 305 306 306 308 309 310 310 315 312 313 315 316 316 316 319 320 320 322 329 330 336 337 339 339 340 340 340 338 342
298 295 300 300 303 302 298 301 304 304 302 306 306 308 309 308 306 305 304 304 304 305 306 307 307 308 307 309 309 310 311 312 311 312 313 314 317 316 317 318 320 324 333 338 339 339 339 340 339
293 299 302 300 301 301 300 302 303 305 304 308 307 307 306 304 303 303 302 302 302 304 304 305 306 306 305 308 307 308 309 309 310 311 312 310 312 311 311 313 315 318 322 325 332 335 338 335 337
297 299 300 302 301 299 303 299 302 301 303 305 307 306 304 303 302 302 302 302 302 302 303 303 304 304 304 305 305 306 306 306 308 308 310 308 309 308 308 309 312 311 313 316 316 325 332 331 331
300 299 299 299 300 300 299 300 301 302 303 303 303 302 302 302 302 301 300 299 301 302 302 303 304 303 303 303 303 304 304 305 306 307 308 308 308 305 305 307 307 308 309 310 312 316 318 323 329
300 295 296 297 297 298 299 293 296 301 303 301 300 300 300 300 301 299 299 299 300 301 302 301 303 302 301 302 303 303 304 305 304 305 306 306 306 304 305 304 304 306 307 307 308 310 313 314 323
295 293 288 295 298 298 297 290 296 300 300 297 298 299 299 299 299 298 298 298 299 299 299 301 304 301 300 300 300 301 301 302 302 303 303 306 306 306 303 303 303 305 305 305 306 307 308 309 311
291 285 289 292 299 297 294 292 296 299 300 298 297 297 298 297 298 297 298 297 298 299 298 298 299 298 298 298 298 298 298 299 299 299 300 300 301 302 300 301 302 302 302 302 304 305 306 305 308
287 288 287 288 295 294 292 291 297 299 299 298 298 297 297 296 295 298 298 298 298 298 297 298 298 297 296 296 296 296 296 297 297 298 296 298 296 296 295 296 296 298 298 298 298 298 300 304 306
294 291 289 288 295 294 293 292 296 298 297 296 296 297 296 295 297 298 299 298 297 297 296 296 296 296 295 295 294 294 293 294 295 294 295 293 293 293 292 293 293 294 294 295 295 295 296 297 303
294 290 289 292 296 294 291 291 296 298 298 297 297 297 295 295 296 298 298 297 295 295 295 295 295 295 294 293 292 292 292 292 292 293 292 291 291 291 292 291 291 292 293 294 294 294 294 296 299
293 290 290 291 294 292 291 288 292 297 299 299 299 299 297 296 296 297 297 295 294 294 294 295 295 294 294 293 292 291 290 290 289 289 289 289 290 290 290 291 291 291 292 291 292 293 293 292 297
290 296 295 293 290 284 292 280 289 294 296 298 298 296 297 297 297 296 296 294 293 293 294 295 295 293 293 293 290 288 286 285 287 287 288 288 289 289 290 291 291 290 290 290 290 292 293 294 293
295 300 295 293 288 287 287 285 287 294 293 294 294 296 295 295 295 294 294 294 293 293 293 293 294 292 291 291 290 287 285 286 286 286 285 286 287 288 289 289 289 289 290 290 290 290 291 293 293
302 295 294 291 288 280 287 286 284 290 294 294 296 296 296 294 294 294 294 294 293 292 292 291 291 290 291 290 288 286 284 284 284 284 284 285 286 287 287 288 288 288 288 289 289 290 291 292 293
294 289 280 278 279 279 290 287 288 292 297 297 296 296 295 295 293 293 292 291 291 290 289 290 288 288 289 288 287 286 284 284 284 285 284 284 284 284 285 286 285 286 287 288 289 290 290 291 292
290 290 281 277 278 281 290 284 286 294 297 299 299 297 296 294 294 292 292 291 290 289 287 286 286 287 288 287 286 285 284 285 285 285 285 284 284 285 286 286 285 285 287 287 288 290 289 290 292
291 287 292 285 285 281 284 287 292 295 294 295 296 296 294 294 293 292 293 290 288 286 285 284 285 286 286 286 284 283 283 285 284 285 285 283 285 286 285 285 284 285 286 286 287 287 287 288 291
293 295 285 284 278 277 283 285 284 290 291 294 294 295 296 295 293 292 292 289 287 285 284 284 284 283 283 283 283 282 282 282 282 283 283 283 285 285 284 284 283 283 285 284 286 285 286 286 286
290 289 290 288 284 277 276 280 292 290 293 293 294 296 296 294 292 291 289 286 284 283 282 282 282 282 281 282 282 280 280 281 282 282 283 282 284 284 283 283 283 282 282 282 282 283 283 282 283
293 289 289 280 280 283 281 278 295 293 295 296 296 297 296 293 290 287 284 283 280 279 279 278 280 280 280 281 281 280 279 279 280 281 283 282 281 282 281 282 282 282 281 281 280 279 281 280 280

GFSSGP_sfc_thetae_150.txt.gz
Theta_e
315 310 308 308 296 293 290 295 297 301 311 324 327 326 324 327 322 316 334 334 342 345 347 348 349 350 351 352 352 353 354 355 355 353 353 352 352 352 352 352 353 354 354 352 352 351 349 350 350
315 312 307 301 292 288 291 296 303 314 320 326 327 328 327 325 334 335 336 340 340 340 342 343 346 347 348 349 349 350 350 351 352 354 355 354 353 353 352 351 351 352 353 353 354 352 351 351 348
310 312 301 296 290 290 291 297 302 315 319 317 319 329 327 328 334 334 336 336 336 335 336 339 343 343 345 346 346 346 347 348 349 350 351 352 354 354 353 351 350 352 353 353 353 353 353 349 346
307 303 301 294 289 295 296 299 300 311 315 323 326 321 329 331 332 331 331 331 330 330 329 332 338 341 344 344 345 345 345 345 345 346 347 349 350 351 351 350 350 352 353 353 354 354 351 348 345
303 299 294 291 292 298 299 302 303 309 318 323 324 319 322 329 330 328 325 324 321 321 322 324 330 334 337 340 341 343 342 342 340 341 344 346 347 347 347 347 348 349 351 353 353 352 349 347 345
299 298 291 288 294 299 300 301 313 318 321 321 318 318 321 327 322 321 319 317 317 315 316 316 322 327 330 333 339 339 338 337 337 338 338 340 342 344 345 346 346 346 347 348 348 348 347 347 346
297 294 291 292 294 297 300 305 305 307 310 316 322 314 320 318 318 316 314 314 313 312 312 312 312 316 321 327 329 329 334 333 332 333 332 332 336 338 341 342 343 344 345 345 346 345 345 343 345
300 297 293 292 294 296 302 303 304 306 306 315 321 312 310 316 316 314 311 310 309 309 309 309 310 311 311 312 324 325 327 326 326 326 327 326 326 326 331 331 335 336 339 342 344 343 342 343 342
301 292 289 292 294 296 302 303 306 309 307 312 317 318 318 318 315 309 306 306 306 307 306 307 308 308 310 311 315 316 319 319 319 319 320 320 317 318 319 323 325 326 330 334 340 340 340 338 339
296 291 293 298 296 296 301 298 303 306 308 307 314 317 316 314 308 305 303 302 303 303 305 305 305 305 308 311 308 309 311 310 310 313 310 314 312 314 315 316 319 321 324 324 328 335 337 337 338
295 294 297 298 299 299 297 300 303 304 301 307 308 310 306 305 304 303 302 302 301 302 303 304 304 304 304 305 305 306 307 306 308 309 308 309 310 310 309 309 311 312 316 315 316 318 329 336 335
292 299 299 299 298 298 298 301 301 302 304 308 306 305 304 302 301 301 300 300 300 301 301 303 302 302 302 303 303 304 305 305 306 307 307 305 306 305 305 307 307 307 309 309 310 313 317 320 326
294 296 298 300 299 298 301 300 300 300 303 305 305 303 301 300 300 300 300 300 300 300 301 302 301 300 301 301 302 302 303 303 304 305 305 306 304 302 304 304 304 305 306 306 306 308 311 313 316
298 296 295 297 297 299 299 299 299 300 302 302 301 300 300 300 299 298 298 297 299 300 300 301 300 299 300 300 300 300 301 302 302 302 303 305 304 303 303 303 303 303 304 305 305 305 307 309 313
298 293 294 295 295 296 298 293 295 301 302 299 298 298 298 298 299 297 297 297 299 299 300 301 300 298 298 297 298 298 299 300 299 300 301 301 301 298 300 300 301 301 302 302 303 304 306 306 309
293 292 287 293 295 296 296 289 295 299 299 295 296 297 297 297 296 296 297 297 297 297 297 298 300 297 296 295 296 297 297 297 297 298 297 297 296 296 295 296 297 297 298 299 300 300 299 300 303
289 285 287 290 295 295 292 290 295 297 298 295 295 295 295 294 294 295 296 296 296 296 296 296 296 295 294 294 295 295 295 295 296 294 295 293 293 294 292 293 294 295 295 296 296 295 296 296 298
286 286 285 286 292 293 290 290 296 297 297 296 294 295 294 294 294 296 296 296 295 295 295 295 295 294 293 293 293 293 293 293 293 292 292 291 291 292 291 291 292 293 293 293 294 293 294 294 296
292 289 287 288 294 291 289 290 294 296 295 293 294 294 294 294 295 297 296 296 294 294 294 294 293 293 292 291 290 290 289 290 290 291 291 290 290 290 289 290 290 291 291 291 293 292 292 292 295
293 290 288 291 294 291 289 289 294 295 296 296 295 294 293 294 295 296 295 294 293 293 293 293 293 292 291 290 289 289 288 289 289 289 289 289 289 289 289 289 289 289 289 290 291 291 290 292 294
292 289 288 289 291 290 288 286 289 295 296 297 297 296 295 294 294 296 295 293 292 292 292 293 291 291 291 290 289 288 287 287 287 286 286 287 288 288 288 288 288 287 288 288 289 289 289 288 292
289 294 293 291 287 282 289 280 286 291 294 295 296 294 294 294 296 296 293 291 291 291 292 292 291 290 291 289 287 285 283 282 284 285 286 286 287 287 288 288 287 286 288 288 289 290 289 290 288
293 298 295 292 288 285 286 283 285 291 290 293 294 294 294 295 295 294 292 291 291 292 291 290 289 290 289 287 286 284 283 283 283 283 283 284 285 286 286 287 285 285 287 287 288 288 288 289 289
299 294 292 290 287 281 286 286 287 287 292 293 294 294 294 293 293 293 292 292 290 290 289 288 288 288 288 286 285 283 282 282 282 282 282 283 284 285 286 286 285 285 285 287 287 288 289 289 290
293 289 281 280 279 280 288 287 288 290 293 295 294 293 293 293 292 291 290 290 289 287 286 286 287 286 287 285 284 283 282 282 283 281 282 281 283 284 284 284 284 284 286 287 288 288 288 289 289
290 289 283 279 278 280 288 282 285 291 295 297 296 294 293 292 292 291 291 290 288 286 284 285 286 285 285 284 282 282 282 282 282 282 282 281 284 284 285 284 284 284 286 285 287 287 286 288 287
291 286 292 286 286 280 282 284 290 292 293 294 293 293 291 292 291 291 290 288 286 284 283 283 284 284 284 283 281 280 281 281 280 281 281 281 284 284 284 284 283 283 283 283 284 284 283 284 286
296 294 286 286 278 277 280 282 283 288 290 293 292 291 292 291 290 290 289 287 286 284 283 283 283 282 282 281 281 280 280 280 280 280 279 280 281 281 282 283 282 282 282 281 281 282 282 282 282
291 289 290 289 284 279 276 280 291 290 293 293 293 294 293 292 290 289 288 286 285 283 283 281 281 280 280 280 280 279 279 279 279 279 279 279 280 280 280 281 281 280 280 279 279 279 279 279 280
294 292 291 283 281 284 281 278 292 292 293 294 295 297 295 293 290 288 284 283 281 279 278 278 280 279 280 280 279 279 278 278 278 278 278 279 278 279 279 279 281 279 278 278 277 277 278 277 277

GFSSGP_sfc_thetae_153.txt.gz
Theta_e
317 310 308 305 295 292 289 291 295 305 314 323 328 325 324 325 320 312 331 332 344 343 344 345 347 349 349 350 350 351 351 351 353 354 352 352 351 351 351 351 351 353 352 352 351 350 348 349 348
313 310 305 298 292 287 290 295 303 308 324 329 328 328 325 323 326 321 331 338 339 339 341 343 345 346 346 347 346 346 348 349 350 351 352 353 353 352 351 351 350 351 352 352 353 351 349 349 347
308 309 300 294 288 288 289 296 311 322 327 316 323 327 326 325 328 329 336 335 334 332 333 336 342 344 344 345 343 344 345 345 346 347 349 350 350 351 352 350 349 351 351 352 351 351 352 349 346
306 303 299 292 290 294 295 297 312 313 317 325 325 321 326 329 331 332 332 331 329 327 324 328 335 337 342 343 342 341 340 340 342 343 346 347 347 347 347 347 349 351 351 351 352 351 350 348 345
301 298 292 290 291 295 298 299 304 309 320 323 323 318 322 326 329 328 325 324 322 318 317 321 329 332 337 338 338 336 336 337 336 336 338 341 341 342 344 345 346 347 348 349 350 348 347 346 345
298 297 290 288 291 297 298 300 310 318 320 320 319 319 319 324 320 318 317 315 316 313 312 313 322 325 328 329 331 332 329 330 329 329 331 332 331 333 332 334 335 335 339 344 346 346 345 343 344
295 293 290 290 293 295 298 306 314 313 315 316 322 316 318 317 316 314 314 314 312 310 309 309 310 315 319 324 326 326 325 326 324 324 324 323 323 324 325 326 328 330 331 334 339 343 343 344 342
297 295 291 290 292 294 299 302 302 305 306 322 320 312 311 312 313 313 311 308 306 307 307 307 307 309 308 310 320 321 321 322 319 320 321 319 318 319 319 321 323 325 325 327 329 331 339 341 341
297 291 288 291 293 295 300 303 305 310 309 314 316 317 315 312 311 306 303 303 304 305 304 304 305 306 306 308 312 313 316 317 316 313 317 313 310 311 312 316 317 318 319 320 321 323 328 336 338
294 289 292 297 295 295 298 297 303 307 308 310 309 312 312 310 306 303 301 300 301 302 302 302 302 303 304 308 305 305 307 307 308 307 307 309 307 309 310 311 313 313 315 315 316 317 320 321 326
293 292 296 298 298 297 297 298 302 304 301 309 307 307 308 304 302 301 300 299 299 300 301 301 301 301 301 303 303 303 303 304 305 305 305 306 305 304 305 305 305 305 309 307 308 309 311 314 315
291 297 298 298 298 297 298 301 301 300 304 313 309 306 303 301 300 300 299 298 298 299 300 300 299 300 300 301 301 301 302 302 302 303 304 303 302 302 303 303 303 303 304 304 304 305 307 309 311
293 295 296 298 297 296 301 298 299 298 302 305 304 302 300 299 298 299 299 298 298 298 298 298 298 298 299 299 298 299 299 299 300 300 301 301 299 298 300 300 301 301 301 302 302 303 304 306 309
296 296 295 295 295 297 299 298 299 299 301 301 300 298 299 298 298 297 297 296 297 298 298 297 297 297 297 296 296 296 297 297 298 298 298 297 295 294 295 296 297 296 297 299 300 300 302 303 306
297 293 292 294 293 293 299 294 295 300 300 298 297 297 297 297 298 296 296 296 297 297 298 297 297 296 295 294 295 295 296 297 295 296 294 294 294 292 292 293 294 294 294 295 297 297 297 297 299
292 291 287 292 294 295 296 290 293 298 298 294 295 296 295 295 296 295 296 296 296 296 295 296 297 294 293 293 293 294 294 294 293 293 292 292 292 292 291 291 291 292 293 293 293 294 293 294 294
289 284 286 289 294 292 291 289 292 296 297 294 294 294 293 292 293 294 295 294 295 295 294 293 293 293 293 293 293 292 292 292 291 291 290 290 291 291 289 290 290 291 292 292 292 292 292 291 292
285 285 283 286 290 290 289 288 292 296 296 295 292 291 292 292 293 294 295 295 294 294 294 293 293 292 292 291 291 291 290 290 290 289 289 289 289 290 289 289 289 290 290 290 290 290 291 291 291
290 287 286 288 292 290 289 289 291 294 294 291 291 291 291 292 293 294 294 293 292 292 292 292 291 291 290 289 288 288 287 287 287 288 288 288 288 289 288 288 288 288 287 287 289 289 288 288 290
291 289 288 290 293 290 287 288 290 293 295 294 292 292 292 292 293 295 293 292 292 291 291 291 291 290 289 288 287 287 286 286 286 287 286 287 287 287 288 287 286 286 286 287 287 288 287 289 291
291 289 289 289 290 288 287 285 288 293 294 295 294 294 294 293 293 294 293 291 290 290 290 290 290 289 289 288 286 286 285 285 284 284 285 286 287 287 286 286 286 284 285 287 287 288 288 286 289
289 294 293 290 287 282 287 281 285 289 293 293 293 293 293 293 295 294 292 290 290 290 291 290 290 288 288 287 284 283 281 280 282 282 283 284 285 285 286 285 286 284 285 286 286 288 288 287 286
292 296 293 292 286 283 283 280 283 288 287 292 292 294 293 294 294 293 292 290 290 290 288 287 288 288 286 285 284 282 281 281 282 282 282 282 284 285 286 285 284 284 285 286 287 287 286 288 288
298 293 290 288 286 281 284 283 283 286 290 291 294 294 293 293 293 293 291 291 289 287 286 286 287 286 285 284 283 282 280 281 280 280 280 281 283 285 285 285 284 284 285 285 286 287 287 288 288
293 288 282 281 279 281 288 285 289 288 291 294 293 293 293 293 291 291 290 289 288 286 285 286 286 285 284 283 282 281 281 281 279 279 280 281 283 284 284 284 283 283 284 283 285 285 285 285 285
291 291 284 280 278 281 287 282 286 291 293 295 296 294 293 291 292 291 290 290 289 285 284 285 285 284 283 282 281 281 280 280 280 280 279 279 283 281 283 283 282 282 282 282 282 284 283 284 283
294 289 293 287 286 280 281 284 288 292 291 292 291 291 290 290 291 290 291 290 286 284 284 284 284 283 282 281 280 279 279 280 280 279 279 279 279 281 280 281 280 281 281 280 280 281 280 281 282
298 294 285 286 279 278 281 281 281 286 288 290 289 289 290 291 291 290 289 288 286 284 282 282 282 281 281 280 279 280 280 280 279 279 278 278 278 278 278 280 279 278 279 279 279 279 279 279 280
292 293 290 288 284 279 275 277 288 287 290 290 290 291 291 291 290 290 289 288 284 282 281 280 280 281 280 280 280 280 279 279 279 278 277 276 276 277 278 279 278 277 277 277 277 278 278 278 279
293 290 290 283 282 283 281 280 290 290 292 292 292 293 292 292 290 287 285 284 283 280 279 279 281 280 280 279 280 279 278 277 277 276 277 277 276 277 278 278 278 276 276 276 275 275 277 277 277

GFSSGP_sfc_thetae_156.txt.gz
Theta_e
316 308 307 303 295 291 287 291 294 309 314 323 325 320 320 323 317 308 330 335 342 341 343 344 346 347 347 346 346 348 349 350 351 353 353 352 352 350 350 351 352 352 351 351 350 348 348 348 347
311 308 304 297 291 286 289 293 297 310 324 328 327 326 324 320 323 319 325 335 337 338 338 341 344 345 344 344 345 344 345 346 346 347 349 350 351 352 351 350 349 350 351 351 351 351 350 348 347
308 306 299 293 287 288 289 294 310 323 323 322 322 325 324 321 323 329 333 332 329 326 327 333 340 343 344 344 341 341 341 342 343 344 346 346 347 348 348 348 349 348 349 349 350 350 349 349 346
304 302 298 292 289 292 292 301 320 321 322 325 323 319 325 328 330 330 330 326 322 319 319 329 336 340 340 337 335 335 334 335 337 339 340 341 341 341 341 340 341 344 347 349 348 348 348 346 346
301 297 291 289 291 293 296 305 321 313 319 322 322 318 320 325 327 324 321 319 317 314 313 322 331 332 334 333 331 332 330 329 331 332 331 332 332 333 333 334 335 336 338 342 344 346 345 343 345
298 296 289 287 290 295 296 302 309 317 319 319 318 318 318 322 319 315 315 313 314 311 311 312 323 327 327 326 327 328 325 325 325 325 325 325 325 326 326 328 329 330 331 333 333 337 341 344 344
295 292 289 289 291 294 297 309 313 315 315 317 322 316 317 316 314 313 311 311 310 309 308 308 309 314 321 323 323 324 322 321 321 321 320 319 320 319 321 322 322 324 324 326 326 328 331 337 341
296 293 289 290 291 292 298 302 304 309 309 322 321 312 311 314 312 310 309 306 305 305 305 305 306 307 307 309 319 320 319 317 317 319 317 315 315 316 316 317 318 319 319 319 320 321 324 325 328
296 290 287 290 292 293 299 303 305 309 310 311 312 316 313 311 310 306 304 303 303 304 302 302 303 304 305 306 311 312 315 314 313 311 313 308 306 308 308 313 314 315 315 315 315 316 317 318 319
293 288 290 295 294 293 299 299 305 309 309 306 305 308 308 308 305 302 300 299 299 299 300 300 301 302 303 306 303 303 305 304 305 304 304 304 303 305 306 308 310 310 311 311 311 312 312 312 311
291 291 294 297 297 296 297 298 302 305 303 308 303 303 304 303 301 300 299 298 298 298 299 299 300 300 300 301 300 300 300 301 302 302 302 301 301 301 302 302 302 302 305 303 304 304 305 307 308
289 295 296 297 297 296 297 300 300 299 303 312 307 306 303 301 300 299 298 297 297 297 297 298 298 298 298 298 298 297 299 298 299 299 298 297 296 296 297 298 299 298 298 299 300 302 303 305 306
291 293 295 296 295 294 300 298 299 299 307 309 306 303 301 300 299 299 298 298 297 296 296 296 296 296 296 296 296 296 296 297 296 295 295 294 293 292 293 293 295 295 295 295 296 298 299 299 300
294 294 294 294 294 297 297 297 298 298 302 302 301 299 299 299 298 297 296 296 297 296 295 295 295 294 295 294 294 294 295 294 294 292 292 293 292 290 290 291 292 292 292 293 294 294 295 296 298
295 291 293 294 293 294 298 293 294 298 301 298 297 297 296 297 297 296 295 295 296 296 296 295 294 294 293 292 293 293 293 293 292 291 291 291 291 290 289 290 290 291 291 292 293 293 294 293 294
290 289 286 293 293 293 296 288 293 298 298 295 294 295 295 295 296 295 295 295 295 294 294 294 296 293 292 291 291 292 291 291 290 289 289 290 291 290 289 289 289 290 291 291 291 291 291 291 291
288 283 286 289 292 291 291 288 293 296 299 295 294 293 293 292 293 293 294 294 294 293 292 292 292 292 291 291 291 290 289 289 288 288 288 288 289 290 288 288 289 289 289 289 289 289 290 289 289
286 283 283 285 289 288 285 288 292 296 297 294 292 291 291 292 292 294 293 293 293 292 292 292 291 291 290 290 289 289 288 287 287 287 287 288 288 288 287 287 287 287 286 286 287 287 288 288 288
288 285 284 287 291 288 287 287 290 295 294 291 291 291 291 292 292 293 293 292 291 291 291 291 290 289 289 288 287 287 285 285 285 286 287 287 287 287 286 286 286 285 285 285 286 287 287 287 291
290 287 287 291 293 289 287 286 287 294 294 294 293 292 291 291 291 293 291 290 290 290 290 290 289 288 287 287 286 286 285 285 284 285 285 286 286 286 286 284 286 284 284 285 286 286 285 288 289
291 288 289 289 291 287 284 283 287 292 294 294 294 293 293 292 291 293 291 290 289 289 289 289 288 287 287 286 285 284 284 284 283 282 283 284 285 285 285 284 284 284 284 284 285 286 286 285 287
288 293 293 291 286 281 287 280 285 289 291 293 293 292 292 292 294 294 292 290 289 288 289 289 288 286 286 285 283 282 280 279 281 281 281 282 284 284 285 284 284 284 284 285 286 287 287 287 285
292 296 293 292 286 283 283 280 283 288 288 291 292 293 293 293 294 293 292 291 289 288 287 287 287 285 285 283 283 281 280 280 281 281 280 280 282 284 284 284 284 284 284 284 284 286 286 286 286
298 293 291 288 285 280 284 284 286 285 288 291 294 294 294 293 294 294 293 291 288 286 285 285 285 284 284 283 282 281 279 279 278 279 279 280 282 283 283 284 284 283 283 282 283 285 284 285 284
293 288 281 279 278 280 287 285 289 288 290 292 294 294 294 293 294 292 290 290 288 285 284 285 284 283 283 282 281 280 279 279 278 278 278 279 281 280 281 281 281 281 281 281 281 283 282 283 282
291 290 283 279 278 280 286 281 286 289 292 293 294 295 294 293 293 292 292 290 289 287 285 285 284 282 282 281 280 279 279 279 279 278 278 279 278 279 280 280 280 280 280 280 281 281 281 281 281
293 288 294 287 285 281 281 283 287 290 291 291 291 292 290 291 292 292 291 291 289 287 285 284 283 282 281 280 280 279 279 279 279 278 278 278 278 280 279 279 278 278 279 279 279 280 279 280 280
297 296 287 286 280 279 281 281 282 285 289 289 288 288 289 291 291 291 291 291 289 287 285 283 283 281 280 279 279 279 279 279 279 278 277 277 277 277 277 278 277 277 277 277 278 278 278 278 280
294 293 290 289 285 281 277 278 286 287 290 289 288 288 289 289 290 290 290 290 286 285 283 281 280 280 280 280 279 279 279 279 278 277 277 276 276 277 277 278 276 276 276 276 276 276 277 277 278
298 295 288 283 282 284 282 282 289 289 290 290 289 290 290 291 290 289 286 285 283 281 280 278 280 280 280 279 279 280 279 278 277 276 276 276 275 277 278 277 276 276 276 276 276 275 276 276 276

GFSSGP_sfc_thetae_159.txt.gz
Theta_e
324 313 317 312 305 303 299 300 305 316 319 326 323 321 320 323 319 314 332 341 344 341 343 344 345 346 347 347 348 348 349 349 351 352 352 352 351 350 350 350 350 351 350 349 349 348 348 348 347
316 312 313 307 302 298 300 301 306 318 326 329 329 328 325 319 321 324 329 333 337 335 337 342 345 345 344 343 344 345 346 347 347 348 348 350 349 349 349 349 349 350 350 349 349 349 349 349 347
313 311 310 304 298 298 299 301 313 325 327 327 326 328 325 319 325 329 331 331 330 326 332 339 341 341 339 339 338 339 340 341 342 342 344 344 344 343 342 342 343 347 348 348 348 348 348 348 347
311 311 306 303 298 301 301 312 325 323 325 328 327 321 325 330 329 331 330 325 322 321 330 332 337 337 335 335 334 334 335 335 334 335 336 336 337 336 337 337 337 339 340 342 345 346 346 346 346
308 307 302 298 298 300 302 317 326 318 323 324 325 319 319 323 327 324 322 320 318 319 324 329 332 331 332 332 330 329 329 328 328 329 329 329 330 330 330 330 331 331 333 333 334 336 338 341 344
306 305 300 297 298 301 303 322 324 321 323 323 322 322 319 322 317 316 316 314 315 314 318 321 327 327 327 328 325 324 325 325 323 323 323 323 323 323 323 324 324 324 325 326 327 328 330 333 337
304 302 298 297 298 300 303 315 319 321 322 321 325 317 318 314 313 313 311 312 312 313 315 316 318 321 324 324 322 320 321 322 320 319 319 319 318 319 319 319 320 320 320 320 321 321 322 324 326
304 303 297 298 298 299 309 314 319 321 318 326 325 316 316 315 311 310 309 308 309 312 314 314 314 315 318 321 319 318 318 317 317 316 315 314 314 314 315 316 316 317 316 316 316 317 317 317 318
303 300 296 298 298 301 305 308 310 315 320 314 313 319 320 312 309 307 306 309 310 309 311 312 312 312 313 314 313 314 314 313 312 311 311 310 311 311 311 312 312 312 312 312 312 313 313 313 313
301 297 297 301 302 301 304 309 311 316 313 310 309 313 314 309 307 307 308 308 307 307 307 309 310 311 311 309 310 310 309 308 308 308 307 308 308 307 307 307 308 307 308 308 308 309 309 310 311
298 297 299 302 303 302 303 306 309 314 311 313 312 310 310 308 306 307 306 306 305 305 306 307 308 309 309 307 307 306 306 306 305 304 304 304 303 304 304 304 305 304 303 303 304 306 306 308 308
296 299 300 302 302 301 302 306 307 314 313 316 314 313 309 307 306 304 305 304 304 304 304 305 306 306 306 305 305 305 304 303 302 301 302 301 300 300 300 301 301 301 300 301 302 302 303 304 305
296 298 299 300 299 301 304 304 306 307 311 313 311 309 307 306 305 305 305 304 303 303 303 303 304 304 304 304 303 303 302 301 300 299 299 299 298 298 299 299 299 299 299 299 300 300 300 301 302
298 298 299 299 299 302 302 302 303 304 310 308 307 306 305 304 304 303 303 302 302 302 302 303 302 303 303 302 302 301 300 299 298 298 298 298 297 297 297 297 297 297 297 298 298 298 298 299 300
299 296 298 299 299 299 303 299 300 305 308 305 305 305 304 303 303 303 303 302 302 302 301 301 301 302 301 300 300 299 298 297 296 296 297 296 297 296 296 296 296 296 296 297 297 297 297 297 298
297 295 293 297 297 298 302 295 301 305 305 303 303 302 302 301 302 302 303 303 302 301 301 301 300 300 300 299 298 297 297 296 295 295 295 295 295 295 295 295 295 295 294 294 294 294 294 295 295
294 292 291 293 297 297 298 295 299 304 305 302 301 301 300 300 300 302 302 302 301 301 300 299 300 299 298 298 297 296 295 295 294 294 294 294 294 294 294 294 294 293 293 293 293 293 293 293 294
292 290 291 292 295 295 295 296 297 300 304 303 301 300 299 299 299 300 301 302 300 300 300 299 299 299 298 297 296 295 294 293 293 293 293 293 293 293 293 292 293 292 292 292 292 292 293 293 293
294 291 290 292 294 294 294 294 296 299 302 302 300 298 298 299 300 300 300 300 299 299 298 298 298 298 297 297 296 296 294 292 292 292 292 292 292 292 291 291 291 291 290 290 291 291 290 291 293
295 294 293 295 296 295 296 295 297 298 299 302 300 298 298 297 297 297 298 298 298 298 298 297 297 297 297 296 296 296 294 292 291 291 291 291 291 291 290 290 289 289 289 290 289 289 288 289 290
295 294 293 293 296 296 293 292 292 295 299 301 301 300 298 297 296 296 296 296 298 297 296 296 296 295 295 294 293 292 292 291 291 290 290 290 290 290 290 289 289 289 289 287 288 288 287 286 289
294 299 297 295 293 290 293 286 291 293 294 297 298 298 296 297 298 297 296 296 296 297 297 297 295 294 292 293 292 291 290 289 289 290 289 290 290 290 289 289 289 289 289 288 287 288 287 286 285
297 299 296 295 292 290 291 287 291 293 291 293 297 297 297 298 298 297 297 297 297 297 296 295 294 292 291 291 291 290 288 288 289 289 287 288 289 289 288 288 288 288 288 286 287 286 286 286 285
301 296 294 292 291 285 290 288 290 290 292 294 296 297 297 297 297 298 298 297 296 296 294 293 292 290 290 290 289 289 288 287 287 286 287 287 288 288 287 286 287 287 287 286 286 286 285 285 284
298 294 286 283 283 283 291 288 291 295 296 297 297 298 298 298 296 296 296 294 293 292 292 292 291 290 290 289 288 287 287 287 286 285 286 285 286 286 285 285 285 285 286 286 285 285 285 284 283
296 295 287 281 281 285 289 286 292 294 296 297 298 300 299 297 297 296 295 295 293 292 292 292 291 289 288 287 286 287 287 286 286 285 285 285 285 285 284 283 284 284 285 285 285 286 285 285 284
295 291 297 288 287 285 288 289 292 294 294 294 296 296 296 296 297 297 296 295 294 292 292 292 290 289 288 286 286 286 286 285 284 284 284 285 284 284 283 283 282 283 284 284 284 285 284 285 284
298 299 288 287 282 281 287 287 290 290 293 294 293 295 295 296 296 296 296 295 294 293 292 292 290 288 287 286 286 285 286 285 284 284 283 283 283 283 282 282 282 282 282 283 283 284 283 283 284
295 293 292 290 288 285 284 287 292 291 294 295 295 294 294 294 295 295 295 294 293 293 290 289 288 286 286 285 285 285 285 284 284 283 282 282 283 283 282 281 281 280 281 281 281 282 281 281 282
296 296 290 285 284 287 288 290 294 294 295 296 295 294 294 295 295 294 291 291 289 287 287 286 287 286 285 285 284 284 284 283 282 281 281 282 282 283 282 281 281 280 280 281 280 280 280 280 279